     2              OBSERVATION DATA    GPS                 RINEX VERSION / TYPE
srx v1.3 (5/19/93) STARR 93/10/11 17:42:19                  PGM / RUN BY / DATE
                                                            COMMENT
sig: 9 8 7 6 5 4 1 0                                        COMMENT
sig: 9 8 7 6 5 4 1 0                                        COMMENT
sig: 9 8 7 6 5 4 1 0                                        COMMENT
Original Marker Name: 7883                                  COMMENT
Campaign Name: Baja (Dixon) 1993                            COMMENT
4-Character Station Name: 7883                              COMMENT
6-Character Antenna Code: DMRCHT                            COMMENT
Vertical Measurement Point: BPA                             COMMENT
Vertical Offset to Rinex Ref. Point: 0.0000                 COMMENT
Radial Measurement Point: RRP                               COMMENT
Radial Offset to Rinex Ref. Point: 0.0000                   COMMENT
Antenna Height from Field Measurement: 0.0614 m             COMMENT
Additional Antenna Identification Info.:                    COMMENT
Turborogue and Ashtech Choke Ring                           COMMENT
Original XYZ: -2493309.0382 -4655182.3466 3565500.9443      COMMENT
New XYZ position is based on association with SCEC monument COMMENT
E1C2H9D8+0011. Position of that monument is believed to be  COMMENT
valid to within 1 m horizontally; vertical accuracy         COMMENT
should be no worse than 3-times this value.                 COMMENT
                                                            COMMENT
Revised Rinex header created by UCSD GPS archive for        COMMENT
GSAC on 10-Nov-2004 (2004:315) 00:02:22 GMT                 COMMENT
For assistance contact dagnew@ucsd.edu                      COMMENT
or anderson@python.ucsd.edu                                 COMMENT
                                                            COMMENT
GSFC ENSENADA 7883                                          MARKER NAME
THE OBSERVER WAS?___JET PROPULSION LABORATORY               OBSERVER / AGENCY
118 TURBOROGUE SNR-8000 100.1                               REC # / TYPE / VERS
118 DORNE-MARGOL. TYPE T                                    ANT # / TYPE
 -2406127.0000 -4898368.0000  3290337.0000                  APPROX POSITION XYZ
        0.0614        0.0000        0.0000                  ANTENNA: DELTA H/E/N
     1     1     0                                          WAVELENGTH FACT L1/2
     4    L1    L2    P1    P2                              # / TYPES OF OBSERV
   120                                                      INTERVAL
  1993     4     9    14     6    0.000000                  TIME OF FIRST OBS
  1993     4     9    23     4    0.000000                  TIME OF LAST OBS
    18                                                      # OF SATELLITES
          01   215   215   215   215                        PRN / # OF OBS
          02   449   449   449   449                        PRN / # OF OBS
          11   466   466   466   466                        PRN / # OF OBS
          13    77    77    77    77                        PRN / # OF OBS
          14   607   607   607   607                        PRN / # OF OBS
          15   533   533   533   533                        PRN / # OF OBS
          16   317   317   317   317                        PRN / # OF OBS
          18   826   826   826   826                        PRN / # OF OBS
          19   824   824   824   824                        PRN / # OF OBS
          20    68    68    68    68                        PRN / # OF OBS
          21    53    53    53    53                        PRN / # OF OBS
          22   565   565   565   565                        PRN / # OF OBS
          25   352   352   352   352                        PRN / # OF OBS
          26   163   163   163   163                        PRN / # OF OBS
          27   636   636   636   636                        PRN / # OF OBS
          28   428   428   428   428                        PRN / # OF OBS
          29   773   773   773   773                        PRN / # OF OBS
                                                            END OF HEADER
 93 04 09 14 06 00.0000000  0  7 15 14 29 22 01 20 25
         0.23418         0.46218  21094508.00118  21094508.56118
        -0.41518        -0.55118  22076683.98318  22076684.49418
        -0.12618        -0.39618  22902864.85218  22902864.69018
         0.00518         0.29618  23377550.25818  23377551.97518
        -0.30618         0.46718  23591943.22118  23591944.85018
         0.40417        -0.26917  25183591.88017  25183595.26217
        -0.63519        -0.81118  20693790.16119  20693789.85518
 93 04 09 14 08 00.0000000  0  7 15 14 29 22 01 20 25
    157975.23608    123097.73508  21124569.75408  21124570.31308
   -321158.76808   -250253.85408  22015569.65408  22015570.17208
   -209471.13208   -163224.55708  22863003.80908  22863003.66408
   -340370.93608   -265223.83708  23312779.79908  23312781.62808
    268422.22608    209160.51208  23643022.58608  23643024.39008
    187960.32707    146461.74707  25219359.67307  25219363.11707
    169243.17609    131877.38208  20725996.23909  20725995.96008
 93 04 09 14 10 00.0000000  0  7 14 29 22 15 01 20 25
   -637623.20808   -496849.55908  21955348.45608  21955348.99908
   -414983.00508   -323363.70008  22823896.21608  22823896.08708
   -676591.67508   -527214.00008  23248799.15508  23248800.91108
    327023.08108    254823.19908  21156738.59108  21156739.18508
    539019.00408    420014.77508  23694515.70508  23694517.56708
    385585.87507    300455.47807  25256966.70107  25256970.17307
    348122.74709    271263.96508  20760035.96209  20760035.70908
 93 04 09 14 12 00.0000000  0  7 14 29 22 15 01 20 25
   -951314.89508   -741284.67108  21895655.00008  21895655.53808
   -618696.12008   -482101.21008  22785130.93008  22785130.79008
  -1010461.11208   -787371.96008  23185265.87708  23185267.58908
    505017.73008    393520.19508  21190609.95308  21190610.58508
    809804.46708    631016.04408  23746044.76208  23746046.70408
    590795.11207    460358.53307  25296017.09607  25296020.32707
    534528.09809    416514.78508  20795507.82409  20795507.60608
 93 04 09 14 14 00.0000000  0  7 14 29 22 15 01 20 25
  -1263227.00308   -984333.10308  21836300.10208  21836300.67408
   -821568.64508   -640183.72708  22746525.62408  22746525.44208
  -1342871.83908  -1046393.26908  23122010.15408  23122011.89608
    690729.28008    538230.35408  21225949.77508  21225950.46008
   1079675.29608    841304.62708  23797399.80108  23797401.85708
    802401.49407    625246.34907  25336284.47007  25336288.01307
    726763.85009    566308.76908  20832089.14109  20832088.96708
 93 04 09 14 16 00.0000000  0  7 29 14 22 15 01 20 25
  -1023232.66408   -797324.53008  22708150.26108  22708150.09608
  -1572654.01808  -1225445.10208  21777418.04608  21777418.64808
  -1673032.79308  -1303661.51808  23059182.55708  23059184.26208
    884611.30008    689307.11508  21262844.42208  21262845.11708
   1349009.11908   1051174.73108  23848652.58908  23848654.78208
   1020900.22807    795504.84507  25377863.64807  25377867.32207
    925904.14408    721482.91308  20869984.37308  20869984.19908
 93 04 09 14 18 00.0000000  0  6 14 29 22 15 01 25
  -1877996.70008  -1463374.51208  21719313.39808  21719313.94508
  -1221864.96808   -952102.95308  22670351.77708  22670351.65308
  -1999257.10408  -1557862.20608  22997104.17608  22997105.82208
   1088002.13308    847793.33708  21301548.53508  21301549.26708
   1619428.77108   1261890.91908  23900112.06508  23900114.36208
   1132906.10708    882783.02608  20909375.65608  20909375.51108
 93 04 09 14 20 00.0000000  0  6 29 14 22 15 01 25
  -1418900.01308  -1105636.75708  22632857.26008  22632857.16208
  -2180427.79708  -1699035.15008  21661762.67908  21661763.27508
  -2322657.51408  -1809862.45308  22935563.08708  22935564.71808
   1299438.95308   1012549.16208  21341783.72408  21341784.48808
   1889366.31608   1472231.41608  23951479.81308  23951482.20208
   1346346.86108   1049100.37408  20949992.19908  20949992.07108
 93 04 09 14 22 00.0000000  0  6 29 14 22 25 15 01
  -1615537.39708  -1258860.69108  22595438.40308  22595438.28808
  -2480646.83808  -1932972.11608  21604632.96208  21604633.57908
  -2643928.34708  -2060203.30308  22874427.18108  22874428.87508
   1565187.57708   1219625.47108  20991636.28108  20991636.19508
   1517870.83008   1182755.67508  21383350.03808  21383350.84208
   2158317.65708   1681803.44108  24002659.91808  24002662.41108
 93 04 09 14 24 00.0000000  0  6 29 14 22 25 15 01
  -1810798.77608  -1411012.45708  22558281.46608  22558281.32608
  -2777492.42508  -2164280.42308  21548145.21208  21548145.81508
  -2961867.88108  -2307948.32508  22813925.27508  22813926.98408
   1790456.51708   1395159.57108  21034503.64008  21034503.58508
   1744138.15208   1359067.74408  21426407.40508  21426408.23308
   2427303.00308   1891401.95308  24053846.48408  24053849.11408
 93 04 09 14 26 00.0000000  0  6 29 14 22 25 15 01
  -2002722.99708  -1560563.81808  22521759.49508  22521759.38308
  -3069275.39808  -2391643.82708  21492620.79708  21492621.42808
  -3274682.37308  -2551699.82308  22754398.64208  22754400.23508
   2023623.33008   1576847.85508  21078873.92308  21078873.91408
   1979669.58208   1542598.57308  21471227.67908  21471228.54008
   2697437.43508   2101895.85208  24105251.63008  24105254.39108
 93 04 09 14 28 00.0000000  0  6 29 14 22 25 15 01
  -2193792.20908  -1709448.96508  22485400.29208  22485400.16008
  -3357927.87708  -2616567.88608  21437692.11108  21437692.75808
  -3584443.26608  -2793071.92008  22695453.05008  22695454.63908
   2262117.84308   1762687.58908  21124258.03608  21124258.05608
   2222023.79108   1731445.86108  21517346.25408  21517347.15808
   2966748.75408   2311748.34808  24156500.29008  24156503.05908
 93 04 09 14 30 00.0000000  0  6 29 14 22 25 15 01
  -2385364.52408  -1858726.12708  22448945.30608  22448945.22208
  -3644917.97108  -2840196.58308  21383079.73708  21383080.41808
  -3892064.96708  -3032777.11108  22636914.58908  22636916.21908
   2504532.12508   1951581.68008  21170388.06008  21170388.11708
   2469914.64408   1924607.41208  21564518.43808  21564519.35908
   3234367.55308   2520281.97608  24207426.87408  24207429.79908
 93 04 09 14 32 00.0000000  0  6 29 14 22 25 15 01
  -2574363.42708  -2005998.05408  22412980.06808  22412979.97808
  -3926605.42508  -3059693.34308  21329476.42708  21329477.06008
  -4194238.80308  -3268237.19708  22579412.76608  22579414.36308
   2753919.43808   2145909.29108  21217845.06808  21217845.15708
   2726273.79708   2124367.62808  21613302.08708  21613303.09408
   3503106.86208   2729688.70108  24258566.64308  24258569.65708
 93 04 09 14 34 00.0000000  0  6 29 14 22 25 15 01
  -2761547.16808  -2151855.59808  22377360.25808  22377360.19508
  -4203807.63108  -3275695.11908  21276726.68808  21276727.35208
  -4491697.33708  -3500023.00008  22522808.24408  22522809.76408
   3009377.13708   2344967.06808  21266457.01508  21266457.13808
   2989991.12108   2329861.48108  21663485.94308  21663487.01408
   3772033.53008   2939241.40308  24309742.08408  24309745.28508
 93 04 09 14 36 00.0000000  0  6 29 14 22 25 15 01
  -2947591.51608  -2296825.29008  22341957.26108  22341957.23308
  -4476748.13008  -3488376.07508  21224787.86008  21224788.53208
  -4784838.56908  -3728444.68208  22467025.26708  22467026.88608
   3270113.94508   2548138.43408  21316073.87808  21316074.03908
   3260287.89108   2540482.17108  21714921.85408  21714922.95708
   4040765.97008   3148642.74808  24360880.60108  24360883.98908
 93 04 09 14 38 00.0000000  0  7 29 14 22 25 15 01 18
  -3131625.04108  -2440228.12008  22306936.89008  22306936.92708
  -4744735.93608  -3697197.79508  21173791.52108  21173792.20108
  -5072769.90508  -3952806.72608  22412233.73608  22412235.31208
   3536705.05308   2755871.58208  21366804.61908  21366804.84108
   3537672.71408   2756626.02008  21767706.58408  21767707.71208
   4309585.20608   3358111.74408  24412035.63908  24412039.09608
        -0.24117         0.22817  25153834.39617  25153835.81117
 93 04 09 14 40 00.0000000  0  7 29 14 22 25 15 01 18
  -3314174.70708  -2582474.70308  22272198.92708  22272198.97008
  -5008720.16908  -3902899.85008  21123557.06108  21123557.75508
  -5355830.39808  -4173373.32008  22358369.12708  22358370.68608
   3808115.50908   2967360.06008  21418452.44608  21418452.72808
   3821422.48608   2977729.57008  21821702.49808  21821703.66208
   4578406.17408   3567582.09708  24463191.01308  24463194.51808
   -296071.40607   -230704.85507  25097494.22307  25097495.64107
 93 04 09 14 42 00.0000000  0  7 29 14 22 25 15 01 18
  -3495724.04808  -2723941.80208  22237651.31308  22237651.34908
  -5267938.26708  -4104888.04008  21074229.52408  21074230.23108
  -5633895.76008  -4390047.58308  22305455.05108  22305456.58008
   4084204.27208   3182493.96908  21470990.54808  21470990.86908
   4111275.87508   3203589.18008  21876859.90608  21876861.07308
   4847039.45308   3776906.19008  24514310.61808  24514314.30608
   -591842.04007   -461175.72407  25041211.14607  25041212.74907
 93 04 09 14 44 00.0000000  0  7 29 14 22 25 15 01 18
  -3675460.92708  -2863996.58808  22203448.59108  22203448.65708
  -5521796.21808  -4302699.48308  21025922.00908  21025922.72908
  -5906134.97908  -4602182.00108  22253649.58408  22253651.11708
   4365903.00008   3401999.26708  21524596.18708  21524596.57008
   4407676.61808   3434550.61308  21933263.26208  21933264.49308
   5115899.43008   3986406.91908  24565473.39608  24565477.27808
   -886574.20207   -690837.38207  24985125.56607  24985127.19407
 93 04 09 14 46 00.0000000  0  7 29 22 25 15 01 18 14
  -3853756.71008  -3002928.42308  22169520.11308  22169520.17008
  -6172786.59508  -4809962.44908  22202907.49008  22202909.03208
   4652380.03408   3625227.91408  21579111.11508  21579111.56708
   4710000.11908   3670127.17808  21990793.65108  21990794.89408
   5384995.63208   4196091.69408  24616681.15008  24616685.14008
  -1181137.42207   -920367.34607  24929072.19607  24929073.93007
  -5770497.10408  -4496492.43608  20978595.86308  20978596.60408
 93 04 09 14 48 00.0000000  0  7 29 22 25 15 01 18 14
  -4031095.07608  -3141114.22808  22135773.76208  22135773.87608
  -6434082.20308  -5013569.38608  22153184.56108  22153186.09708
   4943018.40208   3851699.14708  21634417.95008  21634418.44208
   5017627.09408   3909836.32608  22049333.25308  22049334.56108
   5653527.36508   4405336.61908  24667781.46308  24667785.59508
  -1475661.51108  -1149866.82107  24873026.29908  24873028.08207
  -6014196.16409  -4686387.86508  20932221.56709  20932222.31008
 93 04 09 14 50 00.0000000  0  7 29 22 25 15 01 18 14
  -4206823.05608  -3278045.20008  22102333.89808  22102334.02608
  -6689065.09108  -5212257.32808  22104662.91708  22104664.45608
   5238547.42208   4081981.27308  21690655.44008  21690655.96708
   5331129.87408   4154124.00608  22108991.02408  22108992.38108
   5922554.18008   4614967.30408  24718976.03108  24718980.33208
  -1769573.84608  -1378889.61907  24817096.82308  24817098.60307
  -6252469.23809  -4872055.25108  20886879.70309  20886880.46308
 93 04 09 14 52 00.0000000  0  7 29 22 25 15 01 18 14
  -4381504.56008  -3414160.73308  22069093.18908  22069093.34408
  -6938027.82208  -5406254.22608  22057286.88608  22057288.40208
   5538226.53908   4315497.24308  21747682.65508  21747683.22908
   5649828.31508   4402460.23308  22169637.46508  22169638.91208
   6191710.83108   4824699.11508  24770195.27508  24770199.80808
  -2063297.37408  -1607765.26607  24761203.29208  24761205.08507
  -6485339.28909  -5053512.50108  20842566.11409  20842566.89708
 93 04 09 14 54 00.0000000  0  7 29 22 25 15 01 18 14
  -4554873.51908  -3549253.51108  22036102.22608  22036102.41208
  -7180958.73208  -5595550.99808  22011058.63508  22011060.16408
   5841732.13108   4551994.86808  21805438.05708  21805438.69408
   5973349.28508   4654554.26908  22231201.64508  22231203.14108
   6460339.01308   5034019.12208  24821314.03608  24821318.72708
  -2356786.33008  -1836458.11608  24705354.27208  24705356.10308
  -6712722.95909  -5230694.65208  20799296.50909  20799297.30108
 93 04 09 14 56 00.0000000  0  7 29 22 25 15 01 18 14
  -4726960.49208  -3683347.32108  22003355.24108  22003355.45208
  -7417657.78608  -5779991.79008  21966016.27108  21966017.83708
   6149052.77308   4791465.23908  21863919.45908  21863920.15208
   6301511.68808   4910265.00408  22293649.08508  22293650.60808
   6728950.88608   5243326.41708  24872429.75208  24872434.50508
  -2650500.54608  -2065326.46008  24649462.40008  24649464.26708
  -6934588.55309  -5403577.00408  20757076.92509  20757077.74308
 93 04 09 14 58 00.0000000  0  7 29 22 25 15 01 14 18
  -4898546.28808  -3817050.60508  21970703.60808  21970703.83908
  -7647980.85308  -5959464.28808  21922187.24808  21922188.78608
   6459780.00308   5033590.08808  21923049.02708  21923049.78708
   6634077.91708   5169407.28508  22356934.50108  22356936.10608
   6997464.22908   5452556.91707  24923526.65508  24923531.48207
  -7150893.20509  -5572126.15008  20715915.56409  20715916.39608
  -2944140.67508  -2294137.06808  24593584.62408  24593586.55208
 93 04 09 15 00 00.0000000  0  7 29 22 25 15 01 14 18
  -5068705.38108  -3949642.18008  21938323.45908  21938323.70908
  -7871187.66308  -6133391.65908  21879712.41808  21879713.97008
   6774450.19408   5278787.37208  21982928.98608  21982929.85108
   6971408.75508   5432262.23108  22421126.63008  22421128.30208
   7266112.58908   5661892.63307  24974649.26508  24974654.31507
  -7360428.02009  -5735400.10408  20676042.47609  20676043.33508
  -3237181.84208  -2522480.91208  24537820.82408  24537822.74608
 93 04 09 15 02 00.0000000  0  7 29 22 25 15 01 14 18
  -5236828.13308  -4080646.99508  21906330.84208  21906331.10508
  -8087156.60508  -6301679.12508  21838614.90008  21838616.40008
   7092951.31408   5526969.80208  22043537.97108  22043538.86108
   7313251.38808   5698632.87208  22486177.29308  22486179.05108
   7535308.60507   5871655.07107  25025876.04607  25025881.30907
  -7563359.98009  -5893528.97308  20637425.88509  20637426.76408
  -3529825.60908  -2750515.06308  24482132.64608  24482134.57808
 93 04 09 15 04 00.0000000  0  7 29 22 25 15 01 14 18
  -5403079.05808  -4210193.24108  21874694.43308  21874694.71408
  -8295683.96408  -6464167.97408  21798933.45208  21798934.96308
   7415318.15808   5778164.48808  22104882.50208  22104883.48808
   7659436.34908   5968387.11708  22552054.34508  22552056.11708
   7804724.95807   6081589.20507  25077144.87307  25077150.30607
  -7760021.50909  -6046771.79208  20600002.48409  20600003.37708
  -3821695.08208  -2977945.80308  24426591.71908  24426593.68008
 93 04 09 15 06 00.0000000  0  7 29 22 25 15 01 14 18
  -5568182.67408  -4338845.47408  21843276.31308  21843276.56908
  -8496630.37408  -6620749.60408  21760694.64308  21760696.16908
   7741139.70508   6032051.13308  22166884.55408  22166885.55108
   8009734.18908   6241346.21708  22618713.96908  22618715.88808
   8074626.07807   6291901.07907  25128505.82107  25128511.42907
  -7949727.55909  -6194594.75508  20563902.66109  20563903.57308
  -4113250.59508  -3205131.91208  24371110.51908  24371112.44908
 93 04 09 15 08 00.0000000  0  7 29 22 25 15 01 14 18
  -5732091.66508  -4466566.83508  21812085.52008  21812085.84008
  -8689914.90008  -6771360.94408  21723913.85108  21723915.38508
   8070091.21208   6288376.68408  22229482.17408  22229483.25508
   8363860.35608   6517288.40508  22686102.18008  22686104.13308
   8345111.08607   6502667.95707  25179977.90807  25179983.64407
  -8132555.37209  -6337058.06608  20529111.79909  20529112.72908
  -4404540.45108  -3432111.07108  24315680.00508  24315681.90708
 93 04 09 15 10 00.0000000  0  7 29 22 25 15 01 14 18
  -5894738.24708  -4593304.50608  21781134.96308  21781135.30108
  -8875989.80208  -6916354.39208  21688504.96608  21688506.52108
   8401667.40208   6546747.42808  22292579.27008  22292580.41608
   8721002.99708   6795581.09908  22754064.39908  22754066.39508
   8615515.47107   6713371.98907  25231434.75307  25231440.59507
  -8308958.00409  -6474514.73508  20495543.52009  20495544.46908
  -4695880.11708  -3659129.09408  24260240.00808  24260241.93308
 93 04 09 15 12 00.0000000  0  7 29 22 25 15 14 01 18
  -6056434.23008  -4719301.46508  21750365.34308  21750365.65908
  -9054733.49308  -7055635.21708  21654491.21808  21654492.77308
   8735676.45008   6807013.90008  22356139.30508  22356140.56108
   9080924.84908   7076039.39908  22822555.48308  22822557.54508
  -8478701.50309  -6606782.48108  20463242.54509  20463243.51608
   8885507.78707   6923754.90607  25282813.05907  25282819.08707
  -4987306.11508  -3886214.41308  24204783.50408  24204785.49908
 93 04 09 15 14 00.0000000  0  7 29 22 25 15 14 01 18
  -6216789.13508  -4844253.41808  21719850.86208  21719851.21908
  -9225415.60708  -7188634.28508  21622011.52708  21622013.09708
   9072642.47308   7069584.50508  22420262.03608  22420263.38708
   9444007.24508   7358960.44608  22891647.96508  22891650.12608
  -8641207.84009  -6733410.88008  20432318.69509  20432319.66308
   9155828.31107   7134393.56807  25334253.95107  25334260.11407
  -5278510.18908  -4113126.80708  24149369.29308  24149371.37208
 93 04 09 15 16 00.0000000  0  7 29 22 25 14 15 01 18
  -6375712.74708  -4968090.07308  21689608.78608  21689609.14108
  -9387900.75708  -7315246.10208  21591091.65508  21591093.22808
   9412258.96008   7334220.40508  22484889.20108  22484890.63808
  -8796244.76309  -6854218.94508  20402816.17709  20402817.16608
   9810037.18408   7644178.28508  22961301.40008  22961303.59208
   9426688.13107   7345452.43007  25385797.42407  25385803.84207
  -5569293.18408  -4339711.01408  24094035.19808  24094037.27308
 93 04 09 15 18 00.0000000  0  7 29 22 25 14 15 01 18
  -6532953.29308  -5090615.24908  21659686.98108  21659687.35608
  -9542118.45708  -7435415.74308  21561745.03208  21561746.58108
   9754128.94008   7600612.24908  22549945.16908  22549946.62408
  -8943689.15809  -6969110.75408  20374758.53309  20374759.55008
  10178744.94008   7931482.71808  23031464.40708  23031466.69308
   9698050.44907   7556902.83107  25437436.55407  25437443.07607
  -5859854.75808  -4566122.65808  24038743.20308  24038745.34708
 93 04 09 15 20 00.0000000  0  7 29 22 14 25 15 01 18
  -6689127.60608  -5212309.57208  21629968.04008  21629968.42908
  -9687948.41408  -7549049.49008  21533994.51608  21533996.07008
  -9083545.56809  -7078089.84308  20348144.78509  20348145.81208
  10098447.61708   7868912.14408  22615467.16208  22615468.68008
  10549916.52908   8220707.02408  23102096.22208  23102098.60108
   9969426.67807   7768364.06607  25489078.28807  25489084.99307
  -6150094.61008  -4792283.53108  23983512.36908  23983514.44508
 93 04 09 15 22 00.0000000  0  8 29 22 14 25 15 01 18 19
  -6843547.78208  -5332637.03608  21600582.90208  21600583.32108
  -9825199.32208  -7655998.28808  21507876.57908  21507878.14408
  -9215944.30609  -7181257.77108  20322950.23309  20322951.28008
  10444979.77008   8138936.81208  22681410.28108  22681411.91508
  10923415.57008   8511744.91308  23173170.99508  23173173.48408
  10241484.40607   7980356.40307  25540849.64907  25540856.57807
  -6439846.37908  -5018064.07108  23928374.43508  23928376.49208
        -0.29118        -0.45917  25081851.01318  25081854.45417
 93 04 09 15 24 00.0000000  0  8 29 22 14 25 15 01 18 19
  -6996449.10908  -5451780.99108  21571486.85708  21571487.26108
  -9953802.99208  -7756208.96908  21483404.15508  21483405.72008
  -9340414.59409  -7278247.68108  20299264.40809  20299265.48308
  10793785.66708   8410733.21908  22747786.14308  22747787.93408
  11298984.29608   8804395.51908  23244639.64308  23244642.18708
  10513967.24307   8192679.93606  25592702.00607  25592709.17106
  -6729254.60008  -5243576.92308  23873301.87508  23873303.88708
   -381753.67508   -297470.67207  25009205.77608  25009209.17607
 93 04 09 15 26 00.0000000  0  7 29 22 14 25 15 18 19
  -7148164.40908  -5570000.77108  21542616.45808  21542616.86108
 -10073732.86508  -7849660.82308  21460582.30008  21460583.85208
  -9457013.33209  -7369103.92108  20277076.47809  20277077.55708
  11144449.33808   8683977.25008  22814515.48108  22814517.30108
  11676336.27708   9098435.66008  23316447.60508  23316450.24408
  -7018504.69208  -5468966.57708  23818259.37908  23818261.41708
   -761536.55308   -593405.42807  24936935.49508  24936938.99307
 93 04 09 15 28 00.0000000  0  7 29 22 25 15 18 14 19
  -7298243.26508  -5686945.39908  21514057.46408  21514057.90708
 -10184870.60808  -7936261.66008  21439433.48608  21439435.06008
  11496805.38408   8958540.01008  22881566.96708  22881568.85708
  12055280.41508   9393716.42308  23388558.58908  23388561.32808
  -7307644.72908  -5694270.49108  23763237.89808  23763239.94908
  -9565503.95809  -7453642.15708  20256431.50009  20256432.61508
  -1138970.34008   -887509.76907  24865112.37908  24865115.85207
 93 04 09 15 30 00.0000000  0  7 29 22 25 15 18 14 19
  -7446711.45108  -5802634.96408  21485804.88208  21485805.32608
 -10287136.85108  -8015949.65108  21419972.89108  21419974.44708
  11850672.97208   9234280.58208  22948906.07408  22948908.06708
  12435595.51408   9690065.45408  23460930.47108  23460933.29208
  -7596321.01008  -5919213.05908  23708304.59308  23708306.66808
  -9665607.12709  -7531644.72208  20237382.53209  20237383.66508
  -1513660.06108  -1179475.87607  24793811.34008  24793814.85407
 93 04 09 15 32 00.0000000  0  7 29 22 25 15 18 14 19
  -7593940.75808  -5917359.16708  21457788.18308  21457788.62408
 -10380592.04408  -8088771.90308  21402188.98708  21402190.56208
  12206211.24308   9511322.96008  23016563.12408  23016565.20808
  12816925.54808   9987205.33308  23533495.44008  23533498.37408
  -7884811.76108  -6144011.04708  23653406.74608  23653408.76908
  -9757808.11309  -7603489.72308  20219837.30309  20219838.45908
  -1886074.22108  -1469668.74008  24722943.39208  24722946.87908
 93 04 09 15 34 00.0000000  0  7 29 22 25 15 18 14 19
  -7739924.48708  -6031112.79808  21430008.51208  21430008.96008
 -10465296.61008  -8154775.50408  21386070.29108  21386071.86508
  12562729.15708   9789128.67408  23084406.54608  23084408.78508
  13198926.56408  10284868.05008  23606188.17608  23606191.18908
  -8173508.50408  -6368969.53008  23598469.55408  23598471.58508
  -9841949.75909  -7669054.72608  20203825.81709  20203826.98808
  -2256289.65808  -1758148.23908  24652493.74208  24652497.16408
 93 04 09 15 36 00.0000000  0  7 29 22 25 15 18 14 19
  -7884272.33308  -6143591.72608  21402540.11008  21402540.60108
 -10540669.46408  -8213507.64508  21371727.35408  21371728.92108
  12920504.19108  10067913.94808  23152489.23608  23152491.59408
  13581898.67308  10583287.43808  23679065.69608  23679068.77708
  -8461747.90908  -6593571.66208  23543619.47808  23543621.50008
  -9917458.07109  -7727892.47308  20189457.15709  20189458.36908
  -2623493.04408  -2044280.63408  24582617.13408  24582620.50208
 93 04 09 15 38 00.0000000  0  7 29 22 25 15 14 18 19
  -8026749.52708  -6254612.99508  21375427.65908  21375428.15908
 -10606707.62708  -8264965.98908  21359160.72808  21359162.32008
  13279707.82108  10347812.39108  23220843.73108  23220846.23108
  13965576.65308  10882256.83808  23752077.55908  23752080.74408
  -9984606.08209  -7780215.69408  20176679.38309  20176680.61908
  -8749404.50308  -6817719.68408  23488880.24008  23488882.24608
  -2988253.40308  -2328509.42308  24513205.52708  24513208.84508
 93 04 09 15 40 00.0000000  0  7 29 22 25 15 14 18 19
  -8167477.13308  -6364270.95008  21348648.17808  21348648.69808
 -10663314.71508  -8309075.43608  21348388.80608  21348390.39608
  13640236.09208  10628743.00408  23289450.39808  23289452.95408
  14349793.81808  11181646.35708  23825192.01608  23825195.33708
 -10042650.43909  -7825445.16508  20165633.99309  20165635.25908
  -9036452.49108  -7041393.47408  23434256.85708  23434258.88608
  -3349905.71408  -2610316.43508  24444385.37408  24444388.79908
 93 04 09 15 42 00.0000000  0  7 29 22 25 15 14 18 19
  -8306240.45408  -6472398.28708  21322242.42008  21322242.95608
 -10710302.76508  -8345689.56208  21339447.35008  21339448.90908
  14001926.56408  10910579.20208  23358278.29708  23358280.98508
  14734486.26708  11481406.22008  23898396.88708  23898400.37408
 -10091598.30909  -7863586.46908  20156319.65109  20156320.93908
  -9322948.60108  -7264637.24008  23379738.52708  23379740.53508
  -3708523.91708  -2889759.28108  24376142.68508  24376146.16408
 93 04 09 15 44 00.0000000  0  7 29 22 25 15 14 18 19
  -8443458.00508  -6579321.13408  21296130.88808  21296131.44508
 -10748328.71908  -8375320.22908  21332211.29708  21332212.89608
  14363831.16508  11192582.24308  23427146.84008  23427149.65508
  15118749.87008  11780831.90408  23971520.24908  23971523.81708
 -10132416.01909  -7895392.58808  20148552.38109  20148553.69908
  -9609577.99108  -7487984.83908  23325194.71708  23325196.77208
  -4064503.40008  -3167146.01808  24308402.07908  24308405.61808
 93 04 09 15 46 00.0000000  0  7 29 22 25 15 18 14 19
  -8579062.08908  -6684986.74208  21270326.38508  21270326.95808
 -10776876.20308  -8397565.07308  21326778.95908  21326780.55408
  14726445.05408  11475137.95208  23496150.40008  23496153.39408
  15502866.96608  12080143.42008  24044615.73108  24044619.38208
  -9895792.04208  -7711008.76708  23270730.03108  23270732.02508
 -10164486.00509  -7920382.29408  20142449.75209  20142451.09308
  -4417696.62108  -3442361.66308  24241191.80408  24241195.40008
 93 04 09 15 48 00.0000000  0  7 29 22 25 15 14 18 19
  -8713054.02308  -6789396.11808  21244828.61508  21244829.21808
 -10795910.07708  -8412396.72808  21323156.99508  21323158.59608
  15090401.85008  11758740.05908  23565409.57108  23565412.65108
  15886644.91508  12379190.65008  24117646.61708  24117650.45508
 -10187514.43909  -7938326.63508  20138067.70909  20138069.08108
 -10181516.10708  -7933650.90708  23216358.57408  23216360.66808
  -4767826.50308  -3715190.29108  24174564.46808  24174568.10608
 93 04 09 15 50 00.0000000  0  7 29 22 25 15 18 14 19
  -8845276.21308  -6892426.47108  21219667.66708  21219668.25908
 -10805844.38008  -8420137.80408  21321266.61808  21321268.24408
  15454075.54408  12042121.53808  23634614.84508  23634618.08008
  16269451.77508  12677481.16508  24190492.77308  24190496.73108
 -10467291.83208  -8156333.30508  23161977.26208  23161979.32708
 -10201809.82609  -7949466.01408  20135347.47909  20135348.88208
  -5114907.82808  -3985643.43108  24108517.23708  24108520.82708
 93 04 09 15 52 00.0000000  0  7 29 22 25 15 18 14 19
  -8974979.96108  -6993494.40708  21194985.94108  21194986.56208
 -10805790.52908  -8420095.91808  21321276.94008  21321278.57908
  15818557.74508  12326133.00008  23703973.97508  23703977.38008
  16651966.29008  12975543.87508  24263283.26708  24263287.36208
 -10752151.89808  -8378302.20008  23107770.28708  23107772.34108
 -10206564.81209  -7953171.32308  20134442.72009  20134444.14008
  -5458708.34108  -4253540.07108  24043094.22808  24043097.94908
 93 04 09 15 54 00.0000000  0  7 29 22 18 25 15 14 19
  -9103172.40408  -7093384.71708  21170591.82308  21170592.48008
 -10796207.30308  -8412628.55808  21323100.65908  21323102.29008
 -11036553.89808  -8599914.17208  23053650.44408  23053652.41508
  16183273.48008  12610326.42608  23773377.61908  23773381.16008
  17033530.57408  13272866.14408  24335892.95708  24335897.20108
 -10202221.01909  -7949786.67108  20135269.51509  20135270.95908
  -5799406.09708  -4519018.85308  23978261.62608  23978265.25508
 93 04 09 15 56 00.0000000  0  7 29 22 18 25 15 14 19
  -9229881.69608  -7192119.32508  21146479.91008  21146480.59308
 -10777556.95208  -8398095.92008  21326649.79108  21326651.43108
 -11320857.11408  -8821449.19208  22999549.28308  22999551.34108
  16548040.89408  12894560.10608  23842790.93708  23842794.72608
  17413492.72508  13568940.02508  24408197.79708  24408202.13308
 -10189366.13709  -7939770.00608  20137715.77109  20137717.24808
  -6137247.48508  -4782271.82408  23913972.55408  23913976.10608
 93 04 09 15 58 00.0000000  0  7 29 22 18 25 15 14 19
  -9354237.13408  -7289019.76708  21122815.97408  21122816.67108
 -10749408.55708  -8376162.21008  21332006.33508  21332008.00708
 -11604889.05408  -9042772.85908  22945499.95108  22945502.03308
  16912587.00808  13178621.31508  23912162.42908  23912166.26608
  17792098.90308  13863957.28108  24480244.56908  24480249.05408
 -10167286.55509  -7922565.26408  20141917.46409  20141918.98308
  -6471933.39808  -5043066.03608  23850284.01308  23850287.59708
 93 04 09 16 00 00.0000000  0  7 29 22 18 25 15 14 19
  -9475407.92008  -7383438.65508  21099757.98808  21099758.69908
 -10710388.07508  -8345756.74208  21339431.77308  21339433.47208
 -11886579.26008  -9262271.80408  22891896.17008  22891898.24008
  17278388.88708  13463661.04408  23981772.71108  23981776.78408
  18170552.72308  14158855.80808  24552262.32908  24552267.01208
 -10134856.06109  -7897294.88208  20148088.85509  20148090.40108
  -6801821.47808  -5300121.72908  23787508.39008  23787512.00808
 93 04 09 16 02 00.0000000  0  7 29 22 18 25 15 14 19
  -9595115.82008  -7476717.63108  21076978.44308  21076979.17008
 -10662372.83708  -8308342.36108  21348568.83908  21348570.57108
 -12168388.43408  -9481863.41008  22838269.74408  22838271.82008
  17643676.69708  13748300.16708  24051285.27208  24051289.44108
  18546814.01408  14452045.88308  24623862.93208  24623867.72108
 -10093597.85709  -7865145.76708  20155940.17009  20155941.74608
  -7129090.49308  -5555136.55508  23725231.21308  23725234.83708
 93 04 09 16 04 00.0000000  0  7 29 22 25 15 18 14 19
  -9712440.96808  -7568139.91008  21054652.28708  21054653.04208
 -10605033.74908  -8263662.65208  21359480.20108  21359481.95308
  18008637.70808  14032684.65208  24120735.59208  24120740.00408
  18921059.77508  14743665.43008  24695079.91408  24695084.85708
 -12449793.85508  -9701140.41508  22784720.08108  22784722.20508
 -10043257.72109  -7825919.83408  20165519.68309  20165521.29308
  -7453081.61908  -5807597.12308  23663577.74308  23663581.37108
 93 04 09 16 06 00.0000000  0  7 29 22 25 15 18 14 19
  -9827670.98608  -7657929.62008  21032724.82308  21032725.59408
 -10538242.92308  -8211617.98408  21372190.19108  21372191.97008
  18373644.65208  14317104.90308  24190194.65908  24190199.26908
  19293272.32408  15033700.65208  24765910.05808  24765915.02008
 -12730541.89008  -9919905.15208  22731295.52808  22731297.65908
  -9983814.98709  -7779600.95108  20176831.40209  20176833.05108
  -7773545.78308  -6057309.38508  23602595.32008  23602598.95908
 93 04 09 16 08 00.0000000  0  7 29 22 18 25 15 14 19
  -9940749.02908  -7746042.46408  21011206.84208  21011207.64808
 -10462193.90408  -8152359.13508  21386661.93808  21386663.76408
 -13011013.55708 -10138454.53708  22677923.60508  22677925.70408
  18738079.17808  14601079.12408  24259544.81308  24259549.56808
  19663123.05908  15321895.49308  24836290.71108  24836295.82208
  -9915176.28109  -7726116.37508  20189892.97509  20189894.65908
  -8090721.97908  -6304459.57308  23542238.64008  23542242.25308
 93 04 09 16 10 00.0000000  0  7 22 18 19 25 15 14 29
 -10376753.51308  -8085782.32308  21402920.79608  21402922.66108
 -13290852.79508 -10356511.13008  22624672.01908  22624674.11908
  -8404519.89808  -6548977.34108  23482524.83108  23482528.41608
  19102030.69208  14884676.92208  24328803.07408  24328807.97408
  20030619.93608  15608256.18807  24906223.47008  24906228.77807
  -9837401.80009  -7665513.03808  20204693.17109  20204694.89708
 -10051295.09908  -7832182.34608  20990170.71708  20990171.53908
 93 04 09 16 12 00.0000000  0  7 22 18 19 25 15 14 29
 -10282066.06908  -8012000.00608  21420939.32708  21420941.21608
 -13569393.35508 -10573555.76508  22571667.53208  22571669.69108
  -8714960.23108  -6790878.86308  23423450.01108  23423453.58508
  19465329.20808  15167765.85608  24397937.11508  24397942.29508
  20395501.49607  15892578.98307  24975658.44307  24975663.83707
  -9750496.15509  -7597794.50308  20221230.85209  20221232.62008
 -10159922.84808  -7916827.43408  20969499.61908  20969500.46008
 93 04 09 16 14 00.0000000  0  7 22 18 19 25 15 14 29
 -10177691.33908  -7930669.16408  21440801.27508  21440803.19008
 -13847022.02408 -10789889.82908  22518836.62608  22518838.76808
  -9021385.07908  -7029651.48808  23365139.36208  23365142.94708
  19828663.24108  15450882.47308  24467078.02208  24467083.25808
  20758101.00807  16175123.53807  25044659.28207  25044664.83307
  -9654128.35509  -7522702.85708  20239569.15309  20239570.93608
 -10265592.61008  -7999167.60508  20949391.41908  20949392.29908
 93 04 09 16 16 00.0000000  0  7 22 18 19 25 15 14 29
 -10063639.05108  -7841797.39408  21462504.81208  21462506.79308
 -14123563.95308 -11005377.07808  22466212.42908  22466214.62608
  -9323841.33708  -7265331.70208  23307583.85608  23307587.41808
  20191486.67008  15733601.15507  24536121.61808  24536127.12207
  21118312.01507  16455806.90907  25113205.52707  25113211.23007
  -9548007.16609  -7440011.18808  20259763.48209  20259765.31008
 -10368253.99508  -8079163.59308  20929855.69608  20929856.59008
 93 04 09 16 18 00.0000000  0  7 22 18 19 25 15 29 14
  -9940026.57608  -7745476.15708  21486027.64308  21486029.62808
 -14398690.98608 -11219761.82008  22413857.54408  22413859.68708
  -9622395.09608  -7497970.97808  23250770.94308  23250774.54408
  20554035.56908  16016105.87907  24605113.00708  24605118.90007
  21475923.87307  16734464.89607  25181257.37207  25181263.01607
 -10467879.96608  -8156794.32508  20910897.60608  20910898.52208
  -9432331.61909  -7349874.58608  20281775.97109  20281777.86308
 93 04 09 16 20 00.0000000  0  7 22 18 19 25 15 29 14
  -9807568.70608  -7642262.41808  21511233.68508  21511235.72108
 -14672950.95208 -11433470.93308  22361667.66008  22361669.82708
  -9917369.50908  -7727821.12408  23194639.16208  23194642.65308
  20915700.66908  16297921.92207  24673936.39708  24673942.28707
  21830145.57907  17010481.14607  25248663.97207  25248669.86107
 -10564882.24008  -8232380.61708  20892438.76508  20892439.70408
  -9307792.06309  -7252830.94908  20305475.18309  20305477.11808
 93 04 09 16 22 00.0000000  0  7 22 18 19 25 15 29 14
  -9666561.44108  -7532386.82908  21538066.63308  21538068.73208
 -14946476.89708 -11646608.08608  22309617.45308  22309619.67008
 -10209116.87808  -7955156.68308  23139121.46308  23139124.96708
  21276068.28407  16578726.91407  24742512.74807  24742519.02607
  22180608.56007  17283568.44407  25315355.49107  25315361.65607
 -10659569.75908  -8306163.19808  20874420.42508  20874421.40108
  -9174640.80409  -7149076.90108  20330813.13809  20330815.11408
 93 04 09 16 24 00.0000000  0  7 22 18 19 25 15 29 14
  -9515753.79808  -7414874.59008  21566764.52408  21566766.69308
 -15218088.32108 -11858253.40508  22257931.54608  22257933.78508
 -10496507.50808  -8179097.40108  23084432.83708  23084436.32308
  21636500.37307  16859582.22907  24811101.34607  24811107.80707
  22528500.81807  17554652.45107  25381557.76107  25381564.04507
 -10750538.44308  -8377047.99408  20857109.72408  20857110.72808
  -9031804.20909  -7037775.85308  20357994.18209  20357996.19608
 93 04 09 16 26 00.0000000  0  7 22 18 19 25 15 29 14
  -9355558.87908  -7290047.59208  21597248.77308  21597251.02008
 -15488361.36308 -12068855.82708  22206500.36608  22206502.60608
 -10779644.00108  -8399723.22708  23030553.70508  23030557.22808
  21996464.11807  17140072.60907  24879600.82307  24879607.45507
  22873354.42207  17823368.61106  25447181.86307  25447188.48806
 -10837972.16608  -8445178.28808  20840471.68808  20840472.72708
  -8879168.57609  -6918839.19608  20387039.94309  20387041.99408
 93 04 09 16 28 00.0000000  0  7 22 18 19 25 29 14 15
  -9186238.11808  -7158109.55108  21629469.61908  21629471.87808
 -15757067.72108 -12278237.45908  22155367.31508  22155369.57708
 -11058738.19808  -8617199.21408  22977443.86808  22977447.36108
  22355671.50307  17419973.69807  24947956.41107  24947963.17307
 -10922317.61608  -8510902.12308  20824421.41908  20824422.47408
  -8717172.13909  -6792608.39808  20417866.99209  20417869.07708
  23214862.88606  18089478.14206  25512169.56306  25512176.41606
 93 04 09 16 30 00.0000000  0  6 22 18 19 25 29 14
  -9008468.89108  -7019588.30408  21663298.14808  21663300.49908
 -16024416.02708 -12486560.87308  22104492.61408  22104494.89508
 -11334608.96708  -8832163.40908  22924947.38808  22924950.84808
  22713869.03207  17699087.95607  25016119.54107  25016126.54507
 -11004013.31708  -8574561.22708  20808875.32808  20808876.42508
  -8546562.11609  -6659665.71808  20450333.16809  20450335.30108
 93 04 09 16 32 00.0000000  0  6 22 18 19 25 29 14
  -8822133.60208  -6874392.22708  21698756.76608  21698759.19608
 -16290619.79508 -12693992.45308  22053835.81508  22053838.11108
 -11606377.66108  -9043931.14808  22873231.46408  22873234.87808
  23070644.35307  17977093.99707  25084012.20507  25084019.30707
 -11082343.05708  -8635597.50108  20793969.78408  20793970.89008
  -8367180.76708  -6519888.25408  20484468.45508  20484470.63108
 93 04 09 16 34 00.0000000  0  5 22 18 19 29 14
  -8627576.71808  -6722789.72208  21735779.90808  21735782.37508
 -16555439.85708 -12900345.79908  22003442.26908  22003444.58008
 -11874559.99808  -9252904.36008  22822198.05708  22822201.46108
 -11157571.41408  -8694217.12108  20779654.36708  20779655.49408
  -8179204.58308  -6373413.52508  20520239.30508  20520241.53208
 93 04 09 16 36 00.0000000  0  5 22 18 19 29 14
  -8424842.26108  -6564815.08008  21774359.18308  21774361.72808
 -16818790.85208 -13105554.41208  21953328.28708  21953330.62108
 -12139228.67908  -9459139.71808  22771833.31508  22771836.71708
 -11229658.04308  -8750388.63008  20765936.89408  20765938.04608
  -7982857.15508  -6220415.77108  20557603.15108  20557605.45108
 93 04 09 16 38 00.0000000  0  5 22 18 19 29 14
  -8214178.84608  -6400662.03408  21814447.31808  21814449.87408
 -17081116.33608 -13309963.93608  21903409.39608  21903411.76308
 -12400535.30208  -9662755.28008  22722108.32308  22722111.72408
 -11298645.54608  -8804145.24508  20752809.06608  20752810.26108
  -7778352.42008  -6061061.67708  20596519.30408  20596521.64908
 93 04 09 16 40 00.0000000  0  6 22 18 19 28 29 14
  -7995472.53508  -6230241.79808  21856065.95408  21856068.57308
 -17341765.84308 -13513067.51408  21853809.59208  21853811.95708
 -12658205.58108  -9863537.32608  22673075.31708  22673078.67208
        -0.76317        -0.87317  25046455.80817  25046463.69017
 -11364188.12508  -8855217.51008  20740336.80408  20740338.02908
  -7565242.20108  -5895002.01408  20637073.00208  20637075.43308
 93 04 09 16 42 00.0000000  0  6 22 18 19 28 29 14
  -7768331.16908  -6053248.80308  21899289.72408  21899292.41708
 -17600298.06208 -13714521.26608  21804612.57508  21804614.98208
 -12911660.79408 -10061034.91008  22624844.41108  22624847.82008
   -265978.47608   -207255.85808  24995841.55008  24995849.34908
 -11425511.77908  -8903002.29308  20728667.39408  20728668.65708
  -7343166.45308  -5721956.24108  20679332.78708  20679335.26808
 93 04 09 16 44 00.0000000  0  6 22 18 19 28 29 14
  -7533033.05408  -5869899.90608  21944065.67908  21944068.43108
 -17856823.01708 -13914410.90908  21755797.53908  21755799.96408
 -13160997.23408 -10255323.05708  22577397.25308  22577400.70508
   -531089.40108   -413835.41108  24945392.35208  24945400.07308
 -11483038.64408  -8947828.53708  20717720.47508  20717721.76908
  -7112813.59808  -5542460.76108  20723167.69908  20723170.23708
 93 04 09 16 46 00.0000000  0  6 22 18 19 28 29 14
  -7290410.78708  -5680843.90908  21990235.40608  21990238.24508
 -18111755.53608 -14113059.67508  21707285.49908  21707287.95308
 -13406670.91108 -10446757.10208  22530647.12508  22530650.53208
   -795857.77108   -620148.03708  24895008.28708  24895015.90708
 -11537510.18708  -8990273.99008  20707354.97308  20707356.27608
  -6874460.66408  -5356731.45408  20768524.94008  20768527.52408
 93 04 09 16 48 00.0000000  0  6 22 18 19 28 29 14
  -7040657.73808  -5486231.48008  22037762.10508  22037765.00208
 -18365263.64608 -14310598.48608  21659044.52108  21659046.96908
 -13648980.11208 -10635569.47008  22484537.22608  22484540.62408
  -1060085.75808   -826039.66108  24844727.19008  24844734.69508
 -11588626.59108  -9030105.05908  20697627.91708  20697629.24208
  -6628608.56408  -5165158.65208  20815309.24708  20815311.89208
 93 04 09 16 50 00.0000000  0  6 22 18 19 28 29 14
  -6783266.43908  -5285667.17108  22086742.26208  22086745.29108
 -18616297.07808 -14506208.97208  21611274.45308  21611276.90108
 -13887533.98008 -10821455.60408  22439141.88908  22439145.30808
  -1323305.46308  -1031145.66908  24794637.86808  24794645.38808
 -11635252.44008  -9066436.99808  20688755.39908  20688756.75808
  -6374829.37608  -4967408.89908  20863601.99508  20863604.73808
 93 04 09 16 52 00.0000000  0  6 22 18 19 28 29 14
  -6518170.30108  -5079099.09708  22137188.63908  22137191.73708
 -18864819.07008 -14699862.49208  21563982.38508  21563984.81008
 -14121964.24408 -11004128.54608  22394531.34708  22394534.76108
  -1584795.09608  -1234903.58008  24744877.95408  24744885.42508
 -11677426.95808  -9099300.39108  20680729.94808  20680731.36508
  -6112582.25908  -4763060.77208  20913506.23208  20913508.99408
 93 04 09 16 54 00.0000000  0  6 14 22 18 19 28 29
  -5843032.72608  -4553022.45908  20964799.97008  20964802.82008
  -6246249.58308  -4867213.18408  22188933.73608  22188936.88108
 -19111313.90508 -14891936.42908  21517075.97808  21517078.45108
 -14352993.06108 -11184151.02508  22350568.02208  22350571.44108
  -1845134.38108  -1437765.14208  24695336.80608  24695344.20108
 -11715916.12208  -9129292.08108  20673405.83408  20673407.27308
 93 04 09 16 56 00.0000000  0  6 14 22 18 19 28 29
  -5565816.24508  -4337009.91508  21017552.74308  21017555.68508
  -5967182.26508  -4649758.51508  22242038.76808  22242042.02108
 -19355159.30708 -15081945.89308  21470673.81808  21470676.28608
 -14580030.81408 -11361063.58908  22307364.23208  22307367.63908
  -2103606.34608  -1639171.61208  24646151.04308  24646158.29708
 -11750232.74208  -9156032.42208  20666875.68508  20666877.14708
 93 04 09 16 58 00.0000000  0  7 14 22 18 19 28 29 27
  -5280780.06608  -4114904.11208  21071793.54108  21071796.57208
  -5681078.82808  -4426821.18108  22296482.73308  22296486.08408
 -19596497.07808 -15270001.36408  21424748.77508  21424751.26308
 -14803203.27208 -11534964.22008  22264895.98708  22264899.37708
  -2359951.41008  -1838920.73708  24597369.93808  24597377.26908
 -11779990.71008  -9179220.57708  20661213.03208  20661214.53008
        -0.34117        -0.12317  25437450.41817  25437455.93917
 93 04 09 17 00 00.0000000  0  7 14 22 18 19 28 27 29
  -4988818.44008  -3887401.86708  21127352.17208  21127355.28708
  -5388635.62908  -4198943.79408  22352133.16608  22352136.59008
 -19835775.63808 -15456452.25208  21379215.63508  21379218.16008
 -15022735.98708 -11706028.71308  22223120.28408  22223123.69408
  -2614808.05408  -2037510.09708  24548872.24708  24548879.54908
   -325141.86407   -253357.33007  25375578.15907  25375583.91207
 -11805707.02008  -9199259.38708  20656319.33108  20656320.85808
 93 04 09 17 02 00.0000000  0  8 14 22 18 28 27 29 31 19
  -4689353.83208  -3654053.15308  21184338.71308  21184341.87408
  -5089303.64608  -3965698.53008  22409094.48308  22409098.02008
 -20072172.32108 -15640657.52108  21334230.90508  21334233.43708
  -2866842.56408  -2233900.43608  24500911.52608  24500918.66508
   -648255.78607   -505134.61807  25314091.92807  25314097.45207
 -11826691.32508  -9215610.92408  20652326.40708  20652327.99808
        -0.82317        -0.88917  24922392.99117  24922401.83717
 -15238150.05908 -11873883.84808  22182128.38108  22182131.80308
 93 04 09 17 04 00.0000000  0  8 14 22 18 28 27 29 31 19
  -4382483.33108  -3414933.63808  21242734.45508  21242737.70808
  -4783236.71708  -3727205.26908  22467337.41508  22467341.06908
 -20305091.71608 -15822153.20708  21289907.86608  21289910.39508
  -3116134.08608  -2428153.39408  24453472.67708  24453479.83208
   -969612.13907   -755542.38607  25252939.99307  25252945.64007
 -11842819.82908  -9228178.74108  20649257.35008  20649258.95608
   -314841.92207   -245331.16107  24862480.37607  24862489.07007
 -15449763.25508 -12038777.25308  22141859.70108  22141863.14808
 93 04 09 17 06 00.0000000  0  8 14 22 28 27 29 31 18 19
  -4069118.82608  -3170753.86108  21302366.01508  21302369.34908
  -4471221.74508  -3484077.16808  22526712.23508  22526715.98008
  -3363289.33608  -2620741.66308  24406440.47708  24406447.58608
  -1289796.67507  -1005036.97307  25192011.02107  25192016.66607
 -11854661.27108  -9237405.97508  20647004.09408  20647005.74208
   -631804.57108   -492314.77307  24802164.13508  24802172.92907
 -20535510.51708 -16001700.35008  21246060.69008  21246063.23608
 -15657883.28508 -12200948.71208  22102255.80808  22102259.27608
 93 04 09 17 08 00.0000000  0  8 14 22 28 27 29 31 18 19
  -3748906.63808  -2921238.22708  21363300.62708  21363304.04408
  -4152869.80808  -3236011.17808  22587292.95708  22587296.80308
  -3607286.62808  -2810869.14008  24360009.03408  24360016.05908
  -1607917.33207  -1252923.21607  25131474.62407  25131480.31807
 -11861687.52808  -9242881.11908  20645667.14608  20645668.83808
   -950162.14208   -740385.37407  24741582.58008  24741591.19207
 -20762906.62208 -16178892.14508  21202788.63408  21202791.16108
 -15862127.32308 -12360099.85508  22063389.39208  22063392.82808
 93 04 09 17 10 00.0000000  0  8 14 22 28 27 31 29 18 19
  -3423702.27908  -2667832.60408  21425185.22608  21425188.73208
  -3830588.70908  -2984883.51208  22648621.38208  22648625.32508
  -3850106.74208  -3000079.36408  24313801.89408  24313808.83308
  -1926680.17308  -1501309.86407  25070816.03008  25070821.79207
  -1271983.50508   -991155.07308  24680341.84108  24680350.47008
 -11865847.68108  -9246122.95308  20644875.62408  20644877.35808
 -20989152.64508 -16355187.76308  21159735.43208  21159737.98208
 -16064534.62708 -12517819.83608  22024872.57608  22024876.01508
 93 04 09 17 12 00.0000000  0  8 14 22 28 27 29 31 18 19
  -3092212.81708  -2409529.50808  21488265.89808  21488269.45508
  -3502304.29808  -2729077.95108  22711092.15408  22711096.28408
  -4089555.46908  -3186662.59808  24268236.12708  24268243.06308
  -2243592.00108  -1748254.22007  25010509.84408  25010515.49807
 -11864417.49508  -9245008.65808  20645147.88508  20645149.63408
  -1594851.42408  -1242740.18408  24618901.93908  24618910.40408
 -21211703.62108 -16528604.12808  21117385.44508  21117387.99208
 -16262872.36208 -12672368.74708  21987130.19708  21987133.63608
 93 04 09 17 14 00.0000000  0  8 14 22 28 27 31 29 18 19
  -2753396.51008  -2145517.19808  21552740.80108  21552744.49608
  -3167102.12808  -2467881.97408  22774879.39008  22774883.61508
  -4324374.09608  -3369637.99208  24223551.45908  24223558.24108
  -2557527.79008  -1992879.61708  24950769.99008  24950775.73908
  -1917505.80508  -1494158.84908  24557502.61908  24557510.94608
 -11856784.43208  -9239060.95408  20646600.52008  20646602.30608
 -21429628.76908 -16698415.94808  21075915.70108  21075918.26008
 -16456422.36108 -12823186.95108  21950298.89308  21950302.33408
 93 04 09 17 16 00.0000000  0  8 14 22 28 27 31 29 18 19
  -2408028.79908  -1876399.90408  21618462.35908  21618466.17708
  -2826818.69508  -2202726.58408  22839633.61108  22839637.93408
  -4555926.92508  -3550068.66608  24179488.42708  24179495.23908
  -2869843.16108  -2236242.39208  24891338.52508  24891344.22908
  -2241431.50908  -1746568.08908  24495861.35208  24495869.58708
 -11844676.75508  -9229626.54808  20648904.65108  20648906.47308
 -21644677.03608 -16865986.04408  21034993.37908  21034995.94608
 -16646670.05608 -12971431.90208  21914095.94508  21914099.40008
 93 04 09 17 18 00.0000000  0  8 14 22 28 27 31 29 18 19
  -2057905.10708  -1603576.67808  21685089.04708  21685092.93808
  -2482149.26708  -1934153.53308  22905222.38608  22905226.92308
  -4784498.00008  -3728175.88108  24135992.73708  24135999.53108
  -3181376.39308  -2478995.75008  24832055.84508  24832061.63608
  -2566973.35608  -2000236.55908  24433912.40508  24433920.58608
 -11828072.71208  -9216688.48308  20652064.40508  20652066.25008
 -21856982.31308 -17031418.76608  20994593.08108  20994595.63708
 -16833914.65208 -13117336.81208  21878464.52208  21878467.99008
 93 04 09 17 20 00.0000000  0  8 14 22 28 27 31 29 18 19
  -1701705.64408  -1326019.11408  21752871.88508  21752875.89708
  -2131629.80508  -1661022.01908  22971924.44608  22971929.10508
  -5008338.70608  -3902597.08608  24093397.18808  24093404.00708
  -3490639.67308  -2719980.33208  24773205.09808  24773210.97708
  -2892310.62708  -2253745.54608  24372002.41308  24372010.39408
 -11805676.58208  -9199237.12408  20656326.39108  20656328.29708
 -22064683.27908 -17193263.71908  20955068.92508  20955071.49808
 -17016970.49908 -13259977.79308  21843630.19108  21843633.66808
 93 04 09 17 22 00.0000000  0  8 14 22 28 27 31 29 18 19
  -1339551.49908  -1043821.55608  21821787.93808  21821792.01708
  -1776240.74208  -1384096.00808  23039553.16908  23039557.90108
  -5227767.33108  -4073580.28008  24051641.08408  24051647.84508
  -3798287.84908  -2959706.36208  24714661.71208  24714667.73908
  -3218066.29508  -2507580.67808  24310012.77608  24310020.72508
 -11777970.85408  -9177648.43408  20661598.76408  20661600.71408
 -22268740.65008 -17352269.49708  20916238.18108  20916240.77608
 -17196345.00108 -13399750.20508  21809496.42508  21809499.88808
 93 04 09 17 24 00.0000000  0  7 14 22 28 27 31 29 18
   -972242.48108   -757607.24208  21891684.90808  21891689.09608
  -1416450.45008  -1103740.47808  23108019.37908  23108024.24708
  -5443523.28408  -4241701.70108  24010584.08708  24010590.80808
  -4104526.26608  -3198333.82708  24656386.56608  24656392.56408
  -3544349.76308  -2761827.22108  24247922.83908  24247930.64608
 -11745233.55708  -9152139.02108  20667828.62108  20667830.61108
 -22469237.42608 -17508500.77908  20878084.79508  20878087.36508
 93 04 09 17 26 00.0000000  0  7 14 22 28 27 31 29 18
   -600540.51808   -467969.85708  21962417.78408  21962422.12008
  -1052456.80408   -820109.64208  23177285.53408  23177290.55808
  -5654987.30208  -4406478.75208  23970343.73808  23970350.43108
  -4409672.61908  -3436110.26008  24598319.27008  24598325.22208
  -3870996.83508  -3016357.11208  24185763.75708  24185771.63608
 -11707639.40608  -9122845.05308  20674982.68008  20674984.71408
 -22666219.11708 -17661993.03408  20840600.54708  20840603.12208
 93 04 09 17 28 00.0000000  0  8 14 22 28 27 31 29 18 19
   -223450.44108   -174133.95008  22034176.07808  22034180.54508
   -684004.68508   -533004.69108  23247400.07608  23247405.24008
  -5861910.55508  -4567717.55908  23930967.53308  23930974.24308
  -4712978.54308  -3672452.58308  24540602.05408  24540608.08408
  -4197388.69908  -3270688.10708  24123653.17808  24123660.89108
 -11664195.06808  -9088992.50608  20683250.01208  20683252.08408
 -22858924.51109 -17812153.12208  20803929.97309  20803932.56608
        -0.11418         0.21018  21710715.82718  21710719.33918
 93 04 09 17 30 00.0000000  0  8 14 19 22 28 27 31 29 18
    158815.49308    123735.09008  22106919.23808  22106923.80908
   -165575.05108   -129019.28808  21679208.00308  21679211.53208
   -310914.69908   -242285.82908  23318397.18008  23318402.48108
  -6063683.15908  -4724942.90108  23892571.38308  23892578.09808
  -5013934.51708  -3906963.79908  24483332.11808  24483338.14808
  -4522979.74608  -3524395.06008  24061695.02708  24061702.72108
 -11614507.48708  -9050275.09508  20692705.37808  20692707.49508
 -23046827.39309 -17958571.01008  20768173.33709  20768175.94108
 93 04 09 17 32 00.0000000  0  8 14 19 22 28 27 31 29 18
    545757.29808    425247.63908  22180552.26908  22180556.95308
   -327802.92108   -255430.69408  21648337.15608  21648340.73408
     66099.30408     51490.68508  23390141.06508  23390146.57308
  -6260539.61408  -4878337.49408  23855110.83108  23855117.45008
  -5313695.88008  -4140544.16408  24426289.48608  24426295.49908
  -4848118.15008  -3777749.34108  23999823.08508  23999830.62208
 -11559510.34008  -9007420.36008  20703171.14908  20703173.30808
 -23230835.12409 -18101953.71908  20733157.82809  20733160.46108
 93 04 09 17 34 00.0000000  0  8 14 19 22 28 27 31 29 18
    936427.09808    729665.10608  22254894.72608  22254899.55408
   -487420.22908   -379807.91308  21617963.08908  21617966.65008
    446262.15108    347720.80908  23462484.13708  23462489.78708
  -6452821.68208  -5028167.65408  23818520.69108  23818527.32108
  -5612506.41708  -4373383.63708  24369427.78208  24369433.87008
  -5173210.48508  -4031067.78808  23937959.84908  23937967.31308
 -11499839.94208  -8960924.12708  20714526.18008  20714528.38508
 -23411056.19809 -18242385.78208  20698862.95109  20698865.59508
 93 04 09 17 36 00.0000000  0  8 19 14 22 28 27 31 29 18
   -642613.05708   -500737.46108  21588430.90908  21588434.51008
   1332396.77008   1038212.32508  22330245.68008  22330250.63908
    831166.70808    647645.74508  23535729.58408  23535735.45408
  -6638544.83008  -5172887.00508  23783178.77508  23783185.45808
  -5908313.80808  -4603882.96408  24313137.63008  24313143.65108
  -5496296.41408  -4282822.82108  23876478.42708  23876485.89108
 -11433253.76308  -8909039.00208  20727197.30208  20727199.54408
 -23585505.29809 -18378320.20408  20665666.46809  20665669.12408
 93 04 09 17 38 00.0000000  0  8 19 14 22 28 27 29 31 18
   -794407.34208   -619018.77608  21559545.50908  21559549.09808
   1732716.10908   1350148.87008  22406424.37108  22406429.46708
   1219654.83808    950363.05308  23609656.96208  23609663.00608
  -6818660.83008  -5313237.16308  23748904.03308  23748910.72108
  -6202500.70508  -4833119.55408  24257155.74108  24257161.88908
 -11360612.69608  -8852435.79808  20741020.59408  20741022.90008
  -5818165.32608  -4533629.49208  23815228.68808  23815236.08208
 -23755331.73409 -18510652.56208  20633349.58909  20633352.27308
 93 04 09 17 40 00.0000000  0  8 19 14 22 28 27 29 31 18
   -943819.77908   -735444.09608  21531113.31708  21531116.92208
   2135730.08908   1664185.10108  22483115.85408  22483121.12908
   1610566.98408   1254969.20108  23684045.60508  23684051.83408
  -6994063.75308  -5449914.76108  23715525.88608  23715532.54308
  -6495930.80608  -5061766.42908  24201317.90508  24201323.95908
 -11283073.99508  -8792016.28108  20755775.91308  20755778.27108
  -6139605.68108  -4784102.21908  23754060.44308  23754067.76008
 -23921236.73609 -18639929.27108  20601779.05309  20601781.74108
 93 04 09 17 42 00.0000000  0  8 19 14 22 28 27 29 31 18
  -1089845.32108   -849230.28508  21503325.56908  21503329.20508
   2542805.18108   1981385.81508  22560580.16108  22560585.62508
   2004930.94308   1562265.04808  23759091.12608  23759097.53308
  -7163464.03908  -5581914.95808  23683290.06408  23683296.71508
  -6787743.17608  -5289152.73308  24145787.90108  24145794.02608
 -11199467.28608  -8726868.45708  20771685.97108  20771688.40508
  -6459219.36208  -5033151.57808  23693239.77208  23693247.06908
 -24081797.67009 -18765041.78708  20571225.37709  20571228.08708
 93 04 09 17 44 00.0000000  0  8 19 14 22 28 27 29 31 18
  -1232331.73408   -960258.74808  21476211.42108  21476215.07108
   2953678.45508   2301546.14808  22638767.22608  22638772.89508
   2402514.27608   1872069.50808  23834749.28208  23834755.86308
  -7326482.14308  -5708942.01208  23652268.76708  23652275.38708
  -7077509.52908  -5514944.73108  24090647.18908  24090653.35608
 -11109613.61508  -8656852.86508  20788784.76408  20788787.26408
  -6776872.58908  -5280673.30208  23632792.14808  23632799.39708
 -24237173.42109 -18886113.89508  20541658.45909  20541661.18108
 93 04 09 17 46 00.0000000  0  8 19 14 22 28 27 29 31 18
  -1372265.97208  -1069298.49808  21449582.88208  21449586.52508
   3367263.40508   2623819.45708  22717470.36008  22717476.14808
   2802335.21108   2183617.54108  23910833.27508  23910840.03408
  -7483952.77908  -5831646.35808  23622302.98108  23622309.59908
  -7366079.25408  -5739804.30008  24035734.27908  24035740.41308
 -11014283.18308  -8582569.65808  20806925.72608  20806928.29508
  -7093176.23308  -5527143.49208  23572601.41408  23572608.56708
 -24388159.12309 -19003765.17408  20512926.87809  20512929.62608
 93 04 09 17 48 00.0000000  0  8 19 14 22 28 29 27 31 18
  -1509403.69708  -1176159.12808  21423486.52508  21423490.19908
   3783637.56208   2948266.15708  22796704.28908  22796710.16508
   3204477.52308   2496974.43108  23987359.01508  23987365.90408
  -7635406.78008  -5949662.38508  23593482.21008  23593488.85008
 -10913125.58708  -8503745.81008  20826175.59208  20826178.21708
  -7653764.36408  -5963974.55408  23980989.66208  23980995.80408
  -7407678.74408  -5772210.23608  23512753.57008  23512760.72608
 -24534141.91909 -19117518.09208  20485147.31109  20485150.09508
 93 04 09 17 50 00.0000000  0  8 19 14 22 28 29 27 31 18
  -1643135.61408  -1280365.85508  21398038.24508  21398041.95408
   4202945.81908   3274999.16108  22876496.51608  22876502.66308
   3609229.91508   2812365.10408  24064381.44208  24064388.52708
  -7780374.88908  -6062624.48508  23565895.68108  23565902.22308
 -10805898.93108  -8420192.81608  20846580.27108  20846582.96608
  -7939841.65908  -6186891.95208  23926551.03208  23926557.15108
  -7719722.48908  -6015361.13508  23453373.51008  23453380.64908
 -24674713.64609 -19227054.59008  20458397.52409  20458400.31608
 93 04 09 17 52 00.0000000  0  8 19 14 22 29 28 27 31 18
  -1773730.34008  -1382128.04808  21373186.93308  21373190.68208
   4625122.89008   3603967.56008  22956834.71708  22956841.01208
   4016219.82308   3129499.27108  24141829.67308  24141836.98408
 -10692674.69608  -8331966.38408  20868126.35008  20868129.11108
  -7918919.00708  -6170580.90708  23539531.52308  23539538.08308
  -8223890.96208  -6408229.05108  23872498.19708  23872504.36908
  -8029314.28308  -6256601.41308  23394460.12008  23394467.27508
 -24809956.93309 -19332439.04608  20432661.67709  20432664.49908
 93 04 09 17 54 00.0000000  0  8 19 14 22 29 28 27 31 18
  -1901456.74408  -1481655.21608  21348881.53108  21348885.26708
   5049646.16608   3934764.16308  23037619.36608  23037625.87108
   4425389.27808   3448331.80308  24219692.66108  24219700.10808
 -10573451.01808  -8239065.04908  20890814.04508  20890816.85308
  -8050617.22308  -6273202.88008  23514470.28008  23514476.88708
  -8506377.08208  -6628348.06808  23818742.83608  23818748.97908
  -8336145.68808  -6495690.66908  23336071.90008  23336079.02708
 -24939525.30809 -19433401.48908  20408005.71409  20408008.53908
 93 04 09 17 56 00.0000000  0  8 19 14 29 22 28 27 31 18
  -2025935.67608  -1578651.84908  21325193.99908  21325197.73708
   5476722.60808   4267550.22008  23118889.92408  23118896.64908
 -10447548.09008  -8140959.13408  20914772.81908  20914775.67508
   4836695.87408   3768829.65308  24297962.37408  24297969.99308
  -8175491.67308  -6370507.63408  23490707.52008  23490714.10408
  -8787385.29408  -6847315.42708  23765268.70308  23765274.79308
  -8639894.89408  -6732378.19508  23278270.25708  23278277.24508
 -25063309.41309 -19529856.70408  20384450.43509  20384453.27008
 93 04 09 17 58 00.0000000  0  8 19 14 29 22 28 27 31 18
  -2147258.86308  -1673189.43008  21302106.99608  21302110.78208
   5906553.70908   4602482.71408  23200684.67808  23200691.59508
 -10314910.01808  -8037605.07308  20940013.20008  20940016.10508
   5250252.59908   4091080.87608  24376660.19908  24376667.96608
  -8293210.96808  -6462236.93708  23468306.17808  23468312.82708
  -9066370.57308  -7064706.41608  23712179.51508  23712185.57408
  -8940086.88308  -6966293.81208  23221145.45008  23221152.47508
 -25180898.49109 -19621484.60808  20362074.00209  20362076.84008
 93 04 09 18 00 00.0000000  0  8 19 14 29 22 28 27 31 18
  -2264397.95208  -1764466.67308  21279816.20608  21279819.97608
   6339249.00708   4939647.01208  23283024.46508  23283031.62508
 -10175167.78308  -7928715.31008  20966605.48908  20966608.47408
   5666595.08508   4415502.84608  24455888.07308  24455896.08708
  -8402603.65408  -6547477.95808  23447489.58508  23447496.10708
  -9342780.37108  -7280090.58508  23659580.41208  23659586.48108
  -9235825.98408  -7196739.62608  23164867.97208  23164874.91708
 -25291486.43109 -19707657.06608  20341029.90109  20341032.74808
 93 04 09 18 02 00.0000000  0  8 29 19 14 22 28 27 31 18
 -10028631.95008  -7814531.81608  20994490.55008  20994493.59908
  -2377887.52009  -1852900.12408  21258219.88009  21258223.64408
   6774263.86808   5278618.73808  23365805.75108  23365813.10508
   6085067.24908   4741584.29908  24535521.28008  24535529.48908
  -8503834.57708  -6626359.20708  23428225.88408  23428232.44608
  -9617111.96908  -7493855.40908  23607376.82608  23607382.81908
  -9527408.59008  -7423946.61108  23109381.49308  23109388.31308
 -25395444.77109 -19788663.59408  20321247.26509  20321250.10408
 93 04 09 18 04 00.0000000  0  8 29 19 14 22 28 27 31 18
  -9875396.43608  -7695127.77708  21023650.49508  21023653.60208
  -2488088.54008  -1938771.05408  21237249.29708  21237253.09508
   7211534.36608   5619348.08608  23449016.21108  23449023.76408
   6505408.56608   5069122.28308  24615510.06908  24615518.41308
  -8597081.14508  -6699018.90008  23410481.69208  23410488.25408
  -9889441.18408  -7706059.96608  23555554.28408  23555560.25608
  -9814741.54608  -7647842.15808  23054703.67108  23054710.49508
 -25492763.57809 -19864496.48108  20302728.08309  20302730.95808
 93 04 09 18 06 00.0000000  0  8 29 19 14 22 28 27 31 18
  -9716053.26408  -7570964.55508  21053972.69308  21053975.87008
  -2595254.57909  -2022277.09008  21216856.30909  21216860.13108
   7649974.26408   5960988.65308  23532449.26408  23532457.08808
   6926783.61008   5397465.81208  24695695.59708  24695704.06008
  -8683448.02408  -6766317.82208  23394046.68508  23394053.25708
 -10160371.36708  -7917174.35308  23503997.94608  23504003.93808
 -10098305.25508  -7868800.67308  23000743.10108  23000749.80308
 -25583767.89609 -19935409.01308  20285410.64309  20285413.50308
 93 04 09 18 08 00.0000000  0  8 29 19 14 22 28 27 31 18
  -9551011.70708  -7442361.04908  21085379.28408  21085382.54908
  -2700669.83009  -2104418.89808  21196796.51109  21196800.36108
   8088528.41408   6302718.17808  23615904.04408  23615911.98608
   7348241.65708   5725874.03308  24775896.80208  24775905.55808
  -8763274.27408  -6828520.17108  23378856.25408  23378862.95308
 -10430639.99708  -8127773.19508  23452567.45508  23452573.44108
 -10378700.82608  -8087290.48208  22947385.40208  22947392.12208
 -25669712.70709 -20002379.08908  20269055.96909  20269058.87008
 93 04 09 18 10 00.0000000  0  8 29 19 14 22 28 27 31 18
  -9379640.44508  -7308825.31808  21117990.37208  21117993.69008
  -2803512.09409  -2184555.82808  21177226.32709  21177230.16408
   8528091.67608   6645233.98908  23699550.88508  23699559.15208
   7770570.98008   6054961.20108  24856263.86608  24856272.77008
  -8835245.79308  -6884601.97908  23365160.56008  23365167.19708
 -10699555.73208  -8337317.72308  23401394.30208  23401400.24508
 -10654792.52808  -8302426.60608  22894846.68908  22894853.29008
 -25749335.28109 -20064422.72708  20253904.30009  20253907.21508
 93 04 09 18 12 00.0000000  0  8 29 19 14 22 28 27 31 18
  -9202116.46908  -7170495.24808  21151772.29308  21151775.70908
  -2903550.23309  -2262507.69008  21158189.78309  21158193.62408
   8968646.24608   6988522.23608  23783386.39108  23783394.85208
   8193817.90707   6384763.40507  24936805.55607  24936814.57307
  -8899683.95408  -6934813.60408  23352898.45508  23352905.14408
 -10967049.77708  -8545754.38308  23350491.67208  23350497.58308
 -10926188.42808  -8513903.64108  22843201.52008  22843208.07908
 -25822190.00509 -20121192.71108  20240040.57509  20240043.50108
 93 04 09 18 14 00.0000000  0  8 29 19 14 22 28 27 31 18
  -9017534.24708  -7026665.23208  21186897.34008  21186900.81608
  -2999946.08509  -2337621.40108  21139846.32809  21139850.18708
   9410982.96708   7333199.11808  23867561.12908  23867569.88608
   8618485.68207   6715672.80907  25017617.55507  25017626.64507
  -8955442.95308  -6978262.18908  23342287.87708  23342294.52808
 -11232196.95508  -8752362.31708  23300035.71708  23300041.50608
 -11192045.66608  -8721064.82708  22792610.34508  22792616.79408
 -25887592.88409 -20172156.07008  20227594.88009  20227597.81708
 93 04 09 18 16 00.0000000  0  8 29 19 14 22 28 27 31 18
  -8827986.67508  -6878966.13108  21222967.25908  21222970.83708
  -3095045.28009  -2411724.71608  21121749.51109  21121753.36108
   9852044.58308   7676882.37808  23951493.21708  23951502.25508
   9042239.85607   7045870.29107  25098255.69207  25098264.98707
  -9004494.98808  -7016484.54908  23332953.62608  23332960.26308
 -11497117.95908  -8958794.00908  23249622.70508  23249628.41708
 -11454362.35808  -8925467.14508  22742692.88908  22742699.33008
 -25947720.59009 -20219008.90808  20216153.05309  20216156.00908
 93 04 09 18 18 00.0000000  0  8 29 19 14 22 28 27 31 18
  -8633051.16008  -6727068.65508  21260062.50208  21260066.16508
  -3188637.65009  -2484653.83308  21103939.49009  21103943.34208
  10292256.18908   8019903.23608  24035263.51608  24035272.85008
   9465247.53807   7375486.11907  25178751.84207  25178761.26907
  -9046687.20808  -7049361.59508  23324924.73508  23324931.38808
 -11761795.67708  -9165036.22408  23199256.07808  23199261.78008
 -11712637.23308  -9126720.02408  22693544.63908  22693550.94408
 -26002280.71909 -20261523.37208  20205770.53009  20205773.49008
 93 04 09 18 20 00.0000000  0  8 29 19 14 22 28 27 31 18
  -8431075.63508  -6569685.47708  21298497.42708  21298501.17808
  -3278427.46009  -2554619.93608  21086853.06909  21086856.96908
  10733496.91208   8363726.02108  24119229.75808  24119239.32108
   9889225.73707   7705858.15707  25259432.66807  25259442.11707
  -9079961.93408  -7075289.97008  23318592.71708  23318599.41108
 -12024244.57508  -9369541.70308  23149313.53508  23149319.21408
 -11964824.27008  -9323229.15308  22645554.84508  22645561.09808
 -26049046.85209 -20297964.58008  20196871.36509  20196874.35208
 93 04 09 18 22 00.0000000  0  8 29 14 28 22 27 31 18 19
  -8223546.13008  -6407974.52908  21337989.24308  21337993.07308
  11173941.63908   8706928.53108  24203044.53508  24203054.33008
  -9105559.59908  -7095236.25208  23313721.63508  23313728.32308
  10312617.32507   8035773.14607  25340001.72707  25340011.42507
 -12286022.14308  -9573524.10308  23099498.83808  23099504.48508
 -12212158.22708  -9515956.69608  22598488.60608  22598494.79508
 -26089502.43109 -20329488.45708  20189172.90109  20189175.88208
  -3366199.42609  -2623013.71408  21070150.65209  21070154.51508
 93 04 09 18 24 00.0000000  0  8 29 14 28 22 27 31 18 19
  -8009699.08508  -6241340.83108  21378683.32208  21378687.20808
  11614111.61908   9049916.91508  24286806.97508  24286817.11308
  -9122969.49508  -7108802.48408  23310408.81708  23310415.50208
  10735986.47707   8365670.71507  25420566.56407  25420576.35007
 -12546279.31208  -9776321.77708  23049973.51008  23049979.09508
 -12453757.29408  -9704215.49608  22552513.64008  22552519.80908
 -26122906.95709 -20355518.04108  20182816.35709  20182819.35108
  -3451531.37709  -2689506.18808  21053912.55609  21053916.38308
 93 04 09 18 26 00.0000000  0  8 29 14 22 28 27 31 18 19
  -7789417.28808  -6069693.05608  21420601.79408  21420605.79708
  12054067.85008   9392738.62308  24370528.73808  24370539.28808
  11159333.78607   8695551.25007  25501127.27407  25501137.07807
  -9132238.26708  -7116024.99508  23308644.97608  23308651.69508
 -12805018.29708  -9977936.53808  23000737.07808  23000742.63808
 -12689304.62508  -9887758.66808  22507690.35608  22507696.47308
 -26148906.77609 -20375777.75708  20177868.83209  20177871.85908
  -3534144.27809  -2753879.89308  21038191.84509  21038195.77408
 93 04 09 18 28 00.0000000  0  8 29 14 28 22 27 31 18 19
  -7562856.24508  -5893152.40208  21463715.21908  21463719.31508
  12493294.50708   9734991.83908  24454111.89708  24454122.69908
  -9133075.61108  -7116677.55108  23308485.68608  23308492.40608
  11582431.14307   9025237.07906  25581640.28207  25581650.26206
 -13062251.60508 -10178378.07708  22951787.22308  22951792.75908
 -12918721.10508 -10066524.56608  22464033.69208  22464039.75808
 -26167950.16509 -20390616.90008  20174245.10709  20174248.15108
  -3614162.20109  -2816231.53908  21022964.93109  21022968.85808
 93 04 09 18 30 00.0000000  0  7 29 14 28 27 31 18 19
  -7329862.92208  -5711599.57308  21508052.65908  21508056.88308
  12932223.62808  10077013.22108  24537638.30908  24537649.31508
  -9125135.74408  -7110490.70008  23309996.78208  23310003.45308
 -13317905.45408 -10377588.82708  22903137.85408  22903143.40708
 -13141700.06408 -10240274.23408  22421602.09308  22421608.08108
 -26179525.70809 -20399636.92808  20172042.42809  20172045.52408
  -3691274.39409  -2876318.99008  21008291.00809  21008294.94808
 93 04 09 18 32 00.0000000  0  8 29 14 11 28 27 31 18 19
  -7090771.14308  -5525294.72208  21553550.63108  21553554.95808
  13369884.29408  10418046.14208  24620923.39308  24620934.84308
        -0.41618        -0.32818  24453233.61618  24453245.72118
  -9109006.13008  -7097922.21508  23313066.15008  23313072.88908
 -13572400.18808 -10575896.31708  22854709.04708  22854714.50908
 -13358286.80808 -10409042.93608  22380386.84408  22380392.82108
 -26183430.12509 -20402679.44108  20171299.53409  20171302.66808
  -3765896.71609  -2934466.29308  20994090.88509  20994094.79208
 93 04 09 18 34 00.0000000  0  8 29 14 11 28 27 31 18 19
  -6846072.61408  -5334620.99608  21600115.54308  21600120.00108
  13805704.77008  10757645.08508  24703858.32508  24703870.12208
   -314360.47008   -244955.50408  24393412.39608  24393424.37608
  -9084846.30508  -7079096.43008  23317663.52708  23317670.31708
 -13826037.09808 -10773535.31008  22806443.39008  22806448.87808
 -13568973.24108 -10573213.98708  22340294.37408  22340300.33208
 -26180646.28909 -20400510.31508  20171829.33409  20171832.47708
  -3838701.38809  -2991197.23008  20980236.62509  20980240.60708
 93 04 09 18 36 00.0000000  0  8 29 14 11 28 27 31 18 19
  -6595628.51808  -5139470.22008  21647773.84308  21647778.39908
  14239961.28008  11096025.31008  24786495.68408  24786507.84108
   -626564.48308   -488230.68508  24334001.38508  24334013.30308
  -9052920.08008  -7054218.89008  23323738.95708  23323745.78008
 -14078670.81408 -10970392.58108  22758368.70008  22758374.12908
 -13773358.77208 -10732475.24808  22301400.98008  22301406.83808
 -26171043.62009 -20393027.80808  20173656.77309  20173659.94308
  -3909598.31609  -3046441.61908  20966745.42609  20966749.38708
 93 04 09 18 38 00.0000000  0  8 29 14 11 28 27 31 18 19
  -6339275.65608  -4939715.22808  21696556.53208  21696561.19908
  14673142.49808  11433567.60007  24868928.50508  24868941.07307
   -935652.30508   -729077.64108  24275183.47108  24275195.10908
  -9012178.87308  -7022472.55408  23331491.75208  23331498.54308
 -14329734.24808 -11166026.30008  22710592.83008  22710598.26708
 -13970535.17008 -10886119.01508  22263879.42908  22263885.22608
 -26153520.18709 -20379373.29808  20176991.41809  20176994.59208
  -3977703.53009  -3099510.64508  20953785.42909  20953789.37008
 93 04 09 18 40 00.0000000  0  8 29 14 11 28 27 31 18 19
  -6076645.79408  -4735069.08008  21746533.70308  21746538.50008
  15104772.71607  11769901.22207  24951066.12207  24951079.08807
  -1241466.12208   -967373.39408  24216988.40008  24216999.98008
  -8962627.71808  -6983861.37208  23340921.13608  23340927.95108
 -14579201.77508 -11360416.39008  22663120.60508  22663125.96208
 -14160402.45008 -11034067.36908  22227748.76508  22227754.52808
 -26128241.98609 -20359676.14508  20181801.83009  20181805.04008
  -4042872.76609  -3150291.90608  20941384.18709  20941388.17608
 93 04 09 18 42 00.0000000  0  8 29 14 11 28 27 31 18 19
  -5807582.37908  -4525409.78408  21797735.11608  21797740.01008
  15534918.10107  12105077.76307  25032921.32507  25032934.80807
  -1543728.53608  -1202901.82508  24159469.28908  24159480.57108
  -8904515.13008  -6938578.98108  23351979.77708  23351986.61308
 -14827278.49808 -11553722.74908  22615913.04108  22615918.35208
 -14342741.81808 -11176149.82708  22193050.57408  22193056.33108
 -26095140.40409 -20333882.84208  20188100.88909  20188104.13608
  -4105327.75909  -3198958.16108  20929499.43709  20929503.43508
 93 04 09 18 44 00.0000000  0  7 29 11 28 27 31 18 19
  -5532519.69508  -4311075.74108  21850078.26108  21850083.26108
  -1842131.72508  -1435423.05008  24102684.52208  24102695.65908
  -8837253.75208  -6886167.66908  23364779.27008  23364786.15008
 -15073487.48408 -11745573.71408  22569060.87008  22569066.18008
 -14517309.24208 -11312176.26008  22159831.40908  22159837.10708
 -26053887.35509 -20301737.73408  20195951.19509  20195954.49008
  -4165176.82209  -3245593.81508  20918110.52209  20918114.53208
 93 04 09 18 46 00.0000000  0  8 29 02 11 28 27 31 18 19
  -5251128.68908  -4091810.54508  21903625.57608  21903630.73908
        -0.48618        -0.43318  24091757.10318  24091765.75918
  -2136274.38308  -1664624.39108  24046710.44608  24046721.37408
  -8761046.13008  -6826785.26608  23379281.30408  23379288.21008
 -15317721.45708 -11935885.77108  22522584.57108  22522589.79208
 -14683769.90108 -11441885.75608  22128154.92208  22128160.57608
 -26004434.94109 -20263203.50508  20205361.79709  20205365.12908
  -4221779.25109  -3289699.59708  20907339.43209  20907343.41508
 93 04 09 18 48 00.0000000  0  8 29 02 11 28 27 31 18 19
  -4962747.02408  -3867098.07908  21958503.16508  21958508.43308
   -354971.42008   -276600.69608  24024207.99308  24024216.51208
  -2425631.96908  -1890097.13308  23991646.95808  23991657.74508
  -8675602.95008  -6760206.31208  23395540.57008  23395547.51908
 -15559564.64808 -12124334.90008  22476563.26108  22476568.44708
 -14841670.02308 -11564924.71408  22098107.45308  22098113.09708
 -25946311.21509 -20217912.41608  20216422.47709  20216425.85508
  -4275067.67109  -3331223.05408  20897198.94509  20897202.92708
 93 04 09 18 50 00.0000000  0  8 29 02 11 28 27 31 18 19
  -4668785.20908  -3638037.46608  22014442.61208  22014448.06008
   -707386.76608   -551209.62608  23957145.26808  23957153.70208
  -2711182.16108  -2112603.10008  23937308.05408  23937318.67708
  -8581954.12308  -6687233.35108  23413361.70508  23413368.67708
 -15800545.01608 -12312111.66908  22430706.13508  22430711.24708
 -14992061.13308 -11682112.47808  22069488.87208  22069494.51908
 -25880640.40309 -20166740.49108  20228919.32809  20228922.72008
  -4326384.29509  -3371210.05808  20887433.76209  20887437.76608
 93 04 09 18 52 00.0000000  0  8 29 02 11 28 27 31 18 19
  -4370770.86708  -3405819.07508  22071153.34908  22071158.88308
  -1057618.12208   -824116.81808  23890498.20108  23890506.52008
  -2993654.21908  -2332710.55908  23883554.92008  23883565.41808
  -8481141.26408  -6608678.05708  23432545.70508  23432552.71408
 -16041754.48508 -12500066.92408  22384805.36408  22384810.43808
 -15135751.96008 -11794079.21608  22042145.32908  22042150.92108
 -25808682.17609 -20110669.28908  20242612.61309  20242616.02408
  -4376477.06809  -3410243.44708  20877901.48209  20877905.53208
 93 04 09 18 54 00.0000000  0  8 29 02 11 28 27 31 18 19
  -4067013.63908  -3169125.74808  22128956.85808  22128962.55408
  -1404316.45108  -1094271.06408  23824523.47508  23824531.74208
  -3271315.97608  -2549069.75508  23830717.23408  23830727.57008
  -8371757.39108  -6523444.08708  23453360.84008  23453367.89008
 -16280892.29508 -12686407.87808  22339298.75708  22339303.87808
 -15271090.45008 -11899537.63608  22016391.15208  22016396.72608
 -25728638.37209 -20048297.63108  20257844.54909  20257847.96708
  -4423896.86109  -3447193.99408  20868877.82309  20868881.84708
 93 04 09 18 56 00.0000000  0  8 29 02 11 28 27 31 18 19
  -3757664.64008  -2928075.21408  22187824.48508  22187830.38408
  -1747880.54908  -1361983.08608  23759145.22608  23759153.41108
  -3543995.86308  -2761546.98908  23778827.46608  23778837.63408
  -8253264.23708  -6431111.98208  23475909.58908  23475916.71608
 -16518556.85908 -12871600.87308  22294072.55508  22294077.60708
 -15397991.32608 -11998421.32708  21992242.65008  21992248.19308
 -25640255.41309 -19979427.96208  20274663.39609  20274666.86508
  -4468712.12109  -3482115.04208  20860349.80309  20860353.85408
 93 04 09 18 58 00.0000000  0  8 29 02 11 28 27 31 18 19
  -3442782.77108  -2682713.36208  22247744.99308  22247751.01708
  -2087760.59208  -1626824.45508  23694468.01708  23694476.12408
  -3811658.03708  -2970114.31108  23727892.65708  23727902.64408
  -8126580.91408  -6332397.94508  23500016.78808  23500023.97108
 -16755086.50508 -13055909.51708  22249062.33508  22249067.37408
 -15516507.70408 -12090771.66908  21969689.65708  21969695.19508
 -25544313.52009 -19904668.20308  20292920.65109  20292924.14908
  -4511198.41509  -3515221.30108  20852264.99609  20852269.07608
 93 04 09 19 00 00.0000000  0  8 29 02 11 28 27 31 18 19
  -3122272.27108  -2432965.59308  22308736.61108  22308742.82508
  -2424029.71408  -1888852.11508  23630477.92808  23630486.03108
  -4073989.06208  -3174527.51908  23677972.29308  23677982.12208
  -7991894.58308  -6227447.81108  23525646.93708  23525654.17608
 -16990054.22108 -13239001.11208  22204349.40008  22204354.36908
 -15626417.72408 -12176415.77808  21948774.44108  21948779.94408
 -25440101.31309 -19823464.05008  20312751.72509  20312755.28508
  -4551116.58509  -3546326.42308  20844668.85309  20844672.92808
 93 04 09 19 02 00.0000000  0  8 29 02 11 28 27 31 18 19
  -2796152.98308  -2178847.36708  22370795.61208  22370801.94608
  -2756567.64908  -2147972.29508  23567197.88008  23567205.87008
  -4330543.49508  -3374439.51208  23629151.15908  23629160.87408
  -7847954.93408  -6115287.34608  23553037.93308  23553045.26708
 -17223204.18108 -13420676.30208  22159982.35808  22159987.32308
 -15727372.91508 -12255082.10708  21929563.25908  21929568.77408
 -25327839.44709 -19735987.45908  20334114.56009  20334118.18108
  -4588161.15709  -3575192.36208  20837619.55209  20837623.66408
 93 04 09 19 04 00.0000000  0  8 29 02 11 28 27 31 18 19
  -2465555.71008  -1921239.84008  22433706.71308  22433713.26008
  -3086384.64808  -2404972.20708  23504435.57808  23504443.41908
  -4582032.68808  -3570404.62508  23581294.05408  23581303.58208
  -7696402.21908  -5997194.62908  23581877.70408  23581885.13608
 -17455215.47408 -13601464.17108  22115831.95608  22115836.88708
 -15820183.79008 -12327402.20608  21911901.88308  21911907.35108
 -25208383.40909 -19642905.03308  20356846.41909  20356850.09108
  -4623134.03109  -3602443.98708  20830964.39909  20830968.48908
 93 04 09 19 06 00.0000000  0  8 29 02 11 28 27 31 18 19
  -2129776.74608  -1659594.66608  22497603.92208  22497610.58708
  -3412415.69408  -2659022.02108  23442393.62208  23442401.39208
  -4827766.03708  -3761884.68608  23534532.12608  23534541.60908
  -7537052.59408  -5873026.42208  23612201.09408  23612208.61008
 -17686020.20808 -13781311.85608  22071911.15708  22071916.04208
 -15904261.16208 -12392916.95608  21895902.43808  21895907.89608
 -25080624.19009 -19543352.58008  20381158.35309  20381162.08208
  -4655898.49209  -3627974.76308  20824729.59509  20824733.71608
 93 04 09 19 08 00.0000000  0  8 29 02 11 28 27 31 18 19
  -1788948.85108  -1394015.28608  22562461.97308  22562468.89408
  -3734801.50408  -2910231.40508  23381045.41408  23381053.14908
  -5067441.05108  -3948643.97208  23488923.13108  23488932.56808
  -7369223.56608  -5742250.90108  23644138.21708  23644145.78708
 -17915486.28708 -13960116.40508  22028245.07308  22028249.90708
 -15979409.78808 -12451474.23108  21881602.05708  21881607.50308
 -24945042.74809 -19437704.90108  20406958.88509  20406962.66308
  -4686058.86709  -3651476.38908  20818990.27909  20818994.42008
 93 04 09 19 10 00.0000000  0  8 29 02 11 28 27 31 18 19
  -1443874.04508  -1125126.63808  22628128.09508  22628135.18108
  -4053536.59908  -3158596.07408  23320391.84808  23320399.48708
  -5301354.59308  -4130913.79508  23444410.59408  23444419.76308
  -7193906.44608  -5605640.52708  23677500.21208  23677507.88808
 -18143891.97708 -14138094.69408  21984780.80508  21984785.61008
 -16046036.63308 -12503391.16408  21868923.33108  21868928.74508
 -24802330.70409 -19326500.91908  20434116.17009  20434120.00908
  -4714203.42909  -3673407.26308  20813634.60309  20813638.73608
 93 04 09 19 12 00.0000000  0  8 29 02 11 28 27 31 18 19
  -1094213.09708   -852664.41908  22694666.99908  22694674.31808
  -4369201.07208  -3404568.05608  23260322.66608  23260330.23008
  -5529216.08908  -4308467.76008  23401049.64508  23401058.75408
  -7011117.13308  -5463207.67208  23712284.21508  23712291.98308
 -18371054.90508 -14315104.61408  21941553.00808  21941557.80508
 -16103963.51608 -12548528.94508  21857900.18008  21857905.58208
 -24652161.72309 -19209486.35708  20462692.54909  20462696.43008
  -4740298.81709  -3693741.38608  20808668.88509  20808673.02708
 93 04 09 19 14 00.0000000  0  8 29 02 11 28 27 31 18 19
   -739972.06908   -576633.36008  22762077.51008  22762085.07508
  -4681175.96808  -3647665.05708  23200955.60608  23200963.08708
  -5750651.64408  -4481014.52308  23358911.53008  23358920.54608
  -6820462.58508  -5314646.05708  23748564.91108  23748572.79108
 -18596737.36908 -14490960.94908  21898606.97408  21898611.72308
 -16152932.11308 -12586686.24308  21848581.74808  21848587.14208
 -24494279.08209 -19086461.15708  20492736.82209  20492740.76508
  -4763761.12109  -3712023.74808  20804204.19209  20804208.33908
 93 04 09 19 16 00.0000000  0  8 29 02 11 28 27 31 18 19
   -380486.50408   -296515.72408  22830486.13608  22830493.88308
  -4988573.41308  -3887195.23408  23142459.54708  23142466.98108
  -5964891.81808  -4647954.49908  23318142.69208  23318151.55608
  -6621592.37308  -5159682.62008  23786408.85608  23786416.87708
 -18820700.34208 -14665477.41608  21855988.13308  21855992.83908
 -16192290.78608 -12617355.27508  21841091.98208  21841097.35908
 -24328030.71109 -18956917.20208  20524373.00809  20524377.01508
  -4784358.34209  -3728073.58008  20800284.70009  20800288.84208
 93 04 09 19 18 00.0000000  0  8 29 02 11 28 27 31 18 19
    -15714.23208    -12278.61308  22899900.75208  22899908.74808
  -5290933.79408  -4122800.44208  23084922.10808  23084929.44908
  -6171195.53008  -4808710.22008  23278884.02308  23278892.84108
  -6414218.96808  -4998093.31108  23825870.89308  23825878.97408
 -19042120.09808 -14838012.14008  21813853.21008  21813857.90008
 -16221420.89308 -12640054.00608  21835548.66008  21835554.03208
 -24152860.08609 -18820420.86408  20557707.02709  20557711.07808
  -4801692.59709  -3741580.84508  20796986.11109  20796990.30408
 93 04 09 19 20 00.0000000  0  8 27 29 02 11 28 31 18 19
 -19261188.09008 -15008714.33808  21772165.86308  21772170.47908
    353853.71408    275695.34608  22970228.00608  22970236.21108
  -5588981.00008  -4355044.75708  23028205.37508  23028212.67008
  -6369832.06408  -4963491.52608  23241084.46908  23241093.10908
  -6198627.44808  -4830100.27008  23866896.85808  23866905.02208
 -16240716.27908 -12655089.32308  21831876.82708  21831882.16408
 -23969599.30809 -18677620.51708  20592580.57309  20592584.68508
  -4815738.26009  -3752525.56008  20794313.35909  20794317.55408
 93 04 09 19 22 00.0000000  0  8 27 29 02 11 28 31 18 19
 -19478292.84708 -15177886.78608  21730852.14508  21730856.77108
    728530.09808    567649.89908  23041527.32708  23041535.88208
  -5882496.68908  -4583758.02508  22972350.95808  22972358.22208
  -6560596.22808  -5112138.52908  23204782.94908  23204791.56008
  -5974784.07308  -4655677.25308  23909493.18308  23909501.41708
 -16250097.12208 -12662399.04608  21830091.71608  21830097.04408
 -23778193.81009 -18528473.65308  20629003.97109  20629008.16208
  -4826644.42109  -3761023.93008  20792238.03309  20792242.25108
 93 04 09 19 24 00.0000000  0  8 27 29 02 11 28 31 18 19
 -19692878.81408 -15345096.55808  21690017.73308  21690022.38508
   1108092.30608    863411.54608  23113756.52208  23113765.31308
  -6171353.21508  -4808840.73908  22917383.19608  22917390.36808
  -6743194.22208  -5254422.33108  23170035.43008  23170043.95708
  -5742602.75808  -4474757.14508  23953676.09108  23953684.42508
 -16249399.82008 -12661855.69808  21830224.37608  21830229.73608
 -23578270.49309 -18372689.53908  20667048.39409  20667052.65708
  -4834336.14609  -3767017.55908  20790774.40009  20790778.62908
 93 04 09 19 26 00.0000000  0  8 27 29 02 11 28 31 18 19
 -19907563.42408 -15512383.17708  21649164.51208  21649169.10908
   1489987.11808   1160990.76408  23186429.53708  23186438.51408
  -6457404.24608  -5031737.30208  22862949.27108  22862956.32508
  -6919672.09908  -5391937.23308  23136452.55008  23136460.99108
  -5505136.31508  -4289718.73508  23998864.77008  23998873.16508
 -16240801.81008 -12655155.96608  21831860.55508  21831865.92708
 -23372378.26009 -18212254.32108  20706228.59209  20706232.91208
  -4840831.50409  -3772078.96208  20789538.43009  20789542.68708
 93 04 09 19 28 00.0000000  0  8 29 02 11 28 27 31 18 19
   1874884.64208   1460909.69808  23259673.97208  23259683.34408
  -6740050.89208  -5251981.09208  22809163.13508  22809170.09308
  -7089281.94408  -5524100.43008  23104176.64008  23104185.02908
  -5261173.95608  -4099618.59108  24045289.53208  24045298.07308
 -20121304.71808 -15678934.72408  21608490.84008  21608495.41508
 -16223687.51608 -12641820.17608  21835117.31508  21835122.68508
 -23159994.67009 -18046760.91308  20746644.07709  20746648.48008
  -4845474.36409  -3775696.83708  20788654.98309  20788659.25508
 93 04 09 19 30 00.0000000  0  8 29 02 11 28 27 31 18 19
   2264032.02908   1764140.17808  23333727.25008  23333736.92008
  -7018147.54808  -5468679.46508  22756242.86608  22756249.77508
  -7250440.91208  -5649678.56708  23073508.89308  23073517.17908
  -5009475.77608  -3903490.52208  24093186.39008  24093195.04308
 -20332908.26808 -15843820.47908  21568223.90308  21568228.44208
 -16196609.58508 -12620720.49808  21840270.07108  21840275.45608
 -22939550.00209 -17874986.15808  20788593.57009  20788598.02408
  -4847101.02509  -3776964.42408  20788345.47309  20788349.75208
 93 04 09 19 32 00.0000000  0  8 29 02 11 28 27 31 18 19
   2656563.02508   2070007.16408  23408424.33208  23408434.36108
  -7292495.00308  -5682456.41108  22704036.06508  22704042.88708
  -7403813.53708  -5769189.39308  23044322.78808  23044331.03608
  -4751243.31908  -3702270.79008  24142326.66808  24142335.36508
 -20542861.66308 -16007420.39908  21528271.01508  21528275.54508
 -16160370.45308 -12592482.22608  21847166.16608  21847171.52008
 -22712091.68109 -17697746.22908  20831877.69709  20831882.23908
  -4846276.22709  -3776321.78308  20788502.52109  20788506.81008
 93 04 09 19 34 00.0000000  0  8 29 02 11 28 27 31 18 19
   3053450.53308   2379268.83108  23483950.53408  23483960.82308
  -7562126.07708  -5892558.25508  22652726.70408  22652733.47008
  -7548522.38108  -5881949.22108  23016785.42908  23016793.54808
  -4485968.29208  -3495563.34308  24192807.15608  24192815.83408
 -20750614.28608 -16169305.43808  21488736.94708  21488741.40408
 -16114231.34408 -12556529.70108  21855946.15508  21855951.52108
 -22476791.49509 -17514395.76808  20876654.06509  20876658.68908
  -4842204.41309  -3773148.98708  20789277.33709  20789281.65208
 93 04 09 19 36 00.0000000  0  8 29 02 11 28 27 31 18 19
   3454900.20708   2692085.40008  23560344.90208  23560355.68108
  -7826129.94608  -6098275.24608  22602488.21408  22602494.87508
  -7683782.56308  -5987346.46208  22991046.01708  22991054.07908
  -4212836.41808  -3282733.70808  24244782.79008  24244791.61508
 -20955681.85408 -16329098.24008  21449713.81108  21449718.26808
 -16057546.77008 -12512359.91108  21866732.87608  21866738.23108
 -22233268.55309 -17324637.97108  20922995.15509  20922999.86208
  -4834263.52309  -3766961.35108  20790788.49109  20790792.81408
 93 04 09 19 38 00.0000000  0  8 29 02 11 28 27 31 18 19
   3859331.59408   3007225.28608  23637306.69608  23637317.71808
  -8085905.56608  -6300697.49908  22553054.32808  22553060.92708
  -7810725.74208  -6086262.90108  22966889.27208  22966897.28708
  -3933123.03108  -3064775.65808  24298010.69208  24298019.68308
 -21158937.26008 -16487478.98208  21411035.47908  21411039.90308
 -15991589.85008 -12460964.92008  21879284.06508  21879289.44808
 -21982635.64308 -17129339.96208  20970689.28208  20970694.11408
  -4823953.50809  -3758927.66308  20792750.45709  20792754.79208
 93 04 09 19 40 00.0000000  0  8 29 02 11 28 27 31 18 19
   4268763.31508   3326261.48808  23715220.12808  23715231.36808
  -8339638.12508  -6498410.89808  22504770.42508  22504776.95208
  -7927237.44308  -6177050.95108  22944717.61608  22944725.55508
  -3645151.01908  -2840382.33108  24352810.24008  24352819.32808
 -21358512.86608 -16642992.36108  21373057.44408  21373061.86708
 -15914387.99108 -12400807.65808  21893975.08008  21893980.50308
 -21722941.45708 -16926981.24808  21020107.73108  21020112.63908
  -4808986.89609  -3747265.47108  20795598.60109  20795602.93408
 93 04 09 19 42 00.0000000  0  8 29 02 11 28 27 31 18 19
   4680184.70908   3646848.05908  23793512.17508  23793523.86108
  -8590139.83608  -6693606.75508  22457101.29508  22457107.75608
  -8035893.89008  -6261718.05008  22924040.76208  22924048.64708
  -3351993.61008  -2611948.45508  24408596.70608  24408605.88908
 -21556817.53908 -16797515.42908  21335321.26208  21335325.69508
 -15828659.82108 -12334006.53808  21910288.66008  21910294.07808
 -21457529.48508 -16720167.12008  21070614.25208  21070619.28308
  -4792075.85909  -3734088.14108  20798816.76409  20798821.17208
 93 04 09 19 44 00.0000000  0  8 29 02 11 28 27 31 18 19
   5093177.08008   3968658.67208  23872103.29108  23872115.44908
  -8837492.24608  -6886348.62708  22410031.46408  22410037.86408
  -8136887.79608  -6340414.35208  22904822.06508  22904829.87108
  -3053710.73708  -2379520.70908  24465358.40808  24465367.66108
 -21754525.45308 -16951573.51808  21297698.68808  21297703.10608
 -15734740.98808 -12260823.12108  21928160.89708  21928166.31908
 -21186149.96708 -16508702.95908  21122256.34008  21122261.46108
  -4773324.07309  -3719476.45408  20802385.15009  20802389.58308
 93 04 09 19 46 00.0000000  0  8 29 02 11 28 27 31 18 19
   5508613.83008   4292373.92408  23951159.34008  23951172.11108
  -9080718.62808  -7075875.43208  22363746.89108  22363753.21808
  -8229534.27308  -6412606.21608  22887191.86908  22887199.64008
  -2750128.06708  -2142963.26008  24523128.60008  24523138.01108
 -21950510.26108 -17104288.92108  21260403.99908  21260408.37508
 -15632091.32008 -12180836.48208  21947694.55608  21947700.04508
 -20908795.03908 -16292582.62808  21175035.55308  21175040.78508
  -4752330.03909  -3703117.57208  20806380.29709  20806384.70508
 93 04 09 19 48 00.0000000  0  8 29 02 11 28 27 31 18 19
   5926277.99108   4617824.77508  24030639.66008  24030652.70708
  -9320156.61008  -7262450.25708  22318183.18308  22318189.48308
  -8313742.63708  -6478222.94908  22871167.47408  22871175.14408
  -2441070.48908  -1902139.60508  24581940.65508  24581950.25908
 -22145094.09408 -17255912.63308  21223375.89608  21223380.25808
 -15520763.03008 -12094087.27708  21968879.71908  21968885.22508
 -20625408.21808 -16071762.13308  21228962.56208  21228967.87708
  -4728701.80609  -3684706.06308  20810876.64209  20810881.12408
 93 04 09 19 50 00.0000000  0  8 29 02 11 28 27 31 18 19
   6346247.01108   4945071.63508  24110558.34508  24110571.71408
  -9555802.07808  -7446069.84708  22273341.11708  22273347.33308
  -8389026.82608  -6536885.78908  22856841.20408  22856848.91508
  -2126827.65008  -1657275.47108  24641739.38308  24641748.96608
 -22337790.29808 -17406065.42808  21186706.95208  21186711.33308
 -15400414.05308 -12000308.97608  21991781.46308  21991787.01008
 -20335394.45608 -15845777.80108  21284150.73908  21284156.13708
  -4702240.17409  -3664086.73108  20815912.23009  20815916.74508
 93 04 09 19 52 00.0000000  0  8 29 02 11 28 27 31 18 19
   6768145.73708   5273822.16608  24190844.35708  24190858.24008
  -9787200.46108  -7626380.04508  22229307.28608  22229313.43508
  -8455265.67408  -6588500.29108  22844236.24408  22844243.92408
  -1807306.59108  -1408298.40508  24702542.57508  24702552.24308
 -22528502.31708 -17554672.10308  21150415.61108  21150419.93408
 -15271065.05608 -11899517.67408  22016395.86908  22016401.43208
 -20039134.86508 -15614926.60508  21340527.35608  21340532.88808
  -4673342.78209  -3641569.38908  20821411.30909  20821415.83108
 93 04 09 19 54 00.0000000  0  8 29 02 11 28 27 31 18 19
   7192323.66508   5604348.55608  24271564.07808  24271578.39708
 -10013918.92308  -7803043.53808  22186164.05408  22186170.14108
  -8512073.60208  -6632766.03308  22833425.93508  22833433.52708
  -1481979.16507  -1154796.83208  24764450.46807  24764460.30908
 -22716693.58708 -17701314.58308  21114603.93108  21114608.25908
 -15132473.35708 -11791524.27408  22042769.11208  22042774.65808
 -19736305.70608 -15378956.28108  21398154.13108  21398159.78008
  -4641127.27509  -3616466.49808  20827541.78909  20827546.35708
 93 04 09 19 56 00.0000000  0  8 02 29 11 28 27 31 18 19
 -10236328.49908  -7976349.47908  22143840.75408  22143846.78508
   7618588.06108   5936500.70908  24352680.99008  24352695.73308
  -8559658.91308  -6669845.32508  22824370.64808  22824378.16508
  -1151629.62607   -897381.85207  24827314.08807  24827323.99107
 -22902553.92008 -17846140.76708  21079235.87308  21079240.16508
 -14984989.63708 -11676602.03908  22070834.41408  22070840.04308
 -19427560.96608 -15138376.42408  21456906.62108  21456912.40208
  -4605897.36109  -3589014.72908  20834245.89109  20834250.48908
 93 04 09 19 58 00.0000000  0  8 02 29 11 28 27 31 18 19
 -10453925.17308  -8145905.12208  22102433.29808  22102439.29808
   8047804.50908   6270953.09908  24434359.61808  24434374.89808
  -8597159.77608  -6699066.62908  22817234.33508  22817241.82508
   -815455.09407   -635427.89807  24891286.06707  24891295.95507
 -23085407.31108 -17988623.88008  21044439.96308  21044444.23908
 -14827892.23408 -11554188.62108  22100729.16508  22100734.82208
 -19111841.64508 -14892361.83708  21516986.45108  21516992.34508
  -4567187.97109  -3558851.68808  20841612.13809  20841616.74308
 93 04 09 20 00 00.0000000  0  8 02 29 11 28 27 31 18 19
 -10666498.29408  -8311546.31108  22061981.84508  22061987.79608
   8478936.78908   6606898.28208  24516402.98208  24516418.68308
  -8624848.88508  -6720642.42108  22811965.17308  22811972.62808
   -474348.54107   -369630.72307  24956196.62407  24956206.53907
 -23265810.60008 -18129197.81208  21010110.35108  21010114.61108
 -14661593.04308 -11424604.99508  22132374.96908  22132380.67008
 -18789950.65808 -14641538.18408  21578240.64208  21578246.63408
  -4524728.61309  -3525766.59908  20849691.98709  20849696.64408
 93 04 09 20 02 00.0000000  0  8 02 11 29 28 31 18 27 19
 -10874551.82208  -8473665.74008  22022390.46908  22022396.34508
  -8642772.18008  -6734608.50908  22808554.39708  22808561.84908
   8911924.01108   6944288.85808  24598799.24308  24598815.48908
   -128013.51407    -99759.33407  25022102.10007  25022112.03707
 -14486276.20708 -11287994.63508  22165736.77508  22165742.51408
 -18461825.97608 -14385857.13008  21640681.03208  21640687.18708
 -23443408.82808 -18267585.96408  20976314.47808  20976318.72208
  -4478952.86109  -3490097.31108  20858402.91909  20858407.60408
 93 04 09 20 04 00.0000000  0  8 02 11 31 29 28 18 27 19
 -11078086.24508  -8632263.76008  21983658.91008  21983664.78108
  -8650736.93308  -6740814.71808  22807038.66608  22807046.12508
 -14301885.25108 -11144313.53308  22200825.32608  22200831.09108
   9347027.45608   7283328.40908  24681598.27408  24681615.04608
    223782.05207    174367.15607  25089046.54007  25089056.40607
 -18127964.44408 -14125705.81708  21704213.16608  21704219.48908
 -23617795.79508 -18403471.81608  20943129.65308  20943133.87308
  -4429444.50009  -3451519.47908  20867824.12609  20867828.84508
 93 04 09 20 06 00.0000000  0  8 02 11 31 29 28 18 27 19
 -11277582.70408  -8787715.35008  21945695.91308  21945701.71408
  -8649378.30008  -6739755.97108  22807297.15008  22807304.59608
 -14109190.42008 -10994161.87908  22237494.06808  22237499.90108
   9782796.91907   7622886.89607  24764524.07207  24764541.31207
    579389.02707    451463.68907  25156716.06907  25156725.90807
 -17788484.73008 -13861176.71208  21768814.44108  21768820.82608
 -23789883.79408 -18537566.28708  20910382.29108  20910386.49608
  -4376823.10209  -3410515.89308  20877837.73409  20877842.48608
 93 04 09 20 08 00.0000000  0  8 02 11 31 29 28 18 27 19
 -11472603.33808  -8939679.28808  21908584.52108  21908590.28808
  -8638477.48908  -6731261.75608  22809371.45008  22809378.85308
 -13908103.74808 -10837471.13508  22275759.68508  22275765.56708
  10220056.51307   7963606.49607  24847733.41107  24847751.23007
    939007.28607    731686.03807  25225148.99507  25225158.70507
 -17443396.42608 -13592277.28708  21834482.95008  21834489.43708
 -23959410.63708 -18669665.07408  20878122.39308  20878126.59008
  -4321128.19109  -3367117.36608  20888436.16809  20888440.91508
 93 04 09 20 10 00.0000000  0  7 02 11 31 18 28 27 19
 -11662328.02308  -9087516.53908  21872481.00008  21872486.69808
  -8616910.88808  -6714456.53608  22813475.37008  22813482.76208
 -13697632.04508 -10673467.39808  22315811.28008  22315817.16408
 -17092145.15108 -13318575.56308  21901324.27808  21901330.90908
   1303792.45907   1015934.57907  25294564.91507  25294574.59007
 -24125216.58508 -18798864.46008  20846570.54108  20846574.71408
  -4260914.92209  -3320198.03208  20899894.49209  20899899.28808
 93 04 09 20 12 00.0000000  0  6 02 11 31 18 27 19
 -11847066.93808  -9231468.76708  21837326.19908  21837331.87408
  -8585058.67608  -6689636.58408  22819536.62008  22819543.99808
 -13478283.95508 -10502547.01408  22357551.96108  22357557.90608
 -16735014.84308 -13040292.80508  21969284.38308  21969291.17708
 -24287370.43608 -18925218.05908  20815713.66708  20815717.82508
  -4196751.06109  -3270200.34108  20912104.56009  20912109.40508
 93 04 09 20 14 00.0000000  0  7 16 02 11 31 18 27 19
        -0.94118        -0.68618  23950807.50118  23950816.62418
 -12027993.36508  -9372450.25508  21802896.98008  21802902.59108
  -8543782.57308  -6657473.35108  22827391.16008  22827398.51308
 -13251045.45708 -10325478.27808  22400794.16908  22400800.19708
 -16373179.32908 -12758343.67208  22038139.77508  22038146.72408
 -24447046.55708 -19049640.96408  20785328.26208  20785332.41508
  -4129274.95609  -3217621.68108  20924944.88309  20924949.71608
 93 04 09 20 16 00.0000000  0  7 16 02 11 31 18 27 19
     55467.83308     43221.37908  23961363.17008  23961372.33708
 -12204887.24808  -9510289.49008  21769235.06408  21769240.65408
  -8493250.06208  -6618097.34608  22837007.17308  22837014.51608
 -13016205.88808 -10142486.64908  22445482.85308  22445488.91208
 -16006732.30208 -12472801.17408  22107872.86608  22107880.00508
 -24604005.34208 -19171946.47808  20755459.97308  20755464.13908
  -4058838.25409  -3162736.04908  20938348.61609  20938353.49808
 93 04 09 20 18 00.0000000  0  7 16 02 11 31 18 27 19
    118618.42408     92429.32308  23973380.49108  23973389.76608
 -12376807.47408  -9644253.18408  21736519.61008  21736525.21108
  -8432572.12308  -6570815.85408  22848553.80608  22848561.18308
 -12772996.33108  -9952972.96908  22491764.26308  22491770.40508
 -15635036.60708 -12183168.83508  22178604.76608  22178612.02708
 -24757444.49608 -19291509.41708  20726261.44708  20726265.58208
  -3984488.54809  -3104801.33108  20952497.01209  20952501.92208
 93 04 09 20 20 00.0000000  0  7 16 02 11 31 18 27 19
    189607.76108    147745.32608  23986889.63008  23986898.96008
 -12544447.90608  -9774881.93908  21704618.55208  21704624.08408
  -8361954.53008  -6515789.18408  22861991.89408  22861999.25808
 -12521737.87508  -9757187.41408  22539577.34308  22539583.52908
 -15258316.78508 -11889621.60408  22250292.61108  22250300.05108
 -24907637.11208 -19408542.58808  20697680.68008  20697684.80308
  -3905800.66109  -3043486.23808  20967470.91309  20967475.84908
 93 04 09 20 22 00.0000000  0  7 02 16 11 31 18 19 27
 -12708545.75208  -9902750.23408  21673391.73608  21673397.22008
    266696.13408    207813.74608  24001559.39908  24001568.84808
  -8282445.54908  -6453834.16008  22877121.95708  22877129.35608
 -12263592.61108  -9556035.51708  22588700.97408  22588707.17708
 -14877956.31308 -11593237.52108  22322673.33908  22322680.92008
  -3824560.43209  -2980182.30208  20982930.50809  20982935.46308
 -25054970.37808 -19523347.70308  20669644.10708  20669648.23108
 93 04 09 20 24 00.0000000  0  7 02 16 11 31 18 19 27
 -12868035.46808 -10027027.78008  21643041.66008  21643047.10908
    351275.03108    273718.92508  24017654.54708  24017664.07408
  -8192808.70308  -6383987.29008  22894179.31008  22894186.70408
 -11997432.10508  -9348637.97908  22639349.82908  22639356.08708
 -14492881.34308 -11293179.83608  22395951.21008  22395958.98108
  -3739178.84809  -2913651.34708  20999178.19309  20999183.22008
 -25198594.61308 -19635262.66208  20642313.30708  20642317.42908
 93 04 09 20 26 00.0000000  0  7 02 16 11 31 18 19 27
 -13023239.46608 -10147965.83108  21613507.19408  21613512.62108
    443077.00108    345252.46808  24035124.22808  24035133.92108
  -8093515.55008  -6306616.00208  22913074.15608  22913081.56708
 -11723833.67108  -9135444.62608  22691414.02508  22691420.39808
 -14103433.93008 -10989715.08108  22470061.17008  22470069.12708
  -3649768.30509  -2843980.94608  21016192.54509  21016197.60008
 -25338542.17808 -19744312.66108  20615682.07908  20615686.18808
 93 04 09 20 28 00.0000000  0  7 02 16 11 31 18 19 27
 -13174865.96708 -10266116.25308  21584653.64108  21584659.02508
    540904.15508    421480.90508  24053740.46908  24053750.32408
  -7985326.58408  -6222312.90408  22933661.85408  22933669.24308
 -11443660.54308  -8917128.13308  22744729.38408  22744735.81608
 -13710596.74408 -10683608.96608  22544816.20708  22544824.32508
  -3557071.76109  -2771750.02708  21033832.22709  21033837.28008
 -25475894.78808 -19851340.62608  20589544.72908  20589548.82508
 93 04 09 20 30 00.0000000  0  7 02 19 16 11 31 18 27
 -13322448.43708 -10381115.46108  21556569.46508  21556574.81708
  -3460693.43109  -2696650.17808  21052172.49909  21052177.60008
    645484.61808    502971.66708  24073641.83908  24073651.80408
  -7867639.56008  -6130608.74408  22956056.92408  22956064.32808
 -11156408.52408  -8693295.60408  22799391.76708  22799398.27908
 -13313520.70008 -10374199.86008  22620377.86408  22620386.17008
 -25609465.78108 -19955421.88908  20564126.98808  20564131.07508
 93 04 09 20 32 00.0000000  0  7 02 19 16 11 31 18 27
 -13465717.63208 -10492753.70308  21529306.19208  21529311.54108
  -3360110.75409  -2618274.22308  21071312.89809  21071318.05008
    756822.99208    589728.30408  24094829.29208  24094839.36208
  -7740325.21808  -6031402.78108  22980284.04008  22980291.44708
 -10862043.00208  -8463920.09608  22855407.81208  22855414.36508
 -12912761.47108 -10061920.75608  22696640.42308  22696648.96408
 -25739009.10908 -20056364.70808  20539475.68008  20539479.76408
 93 04 09 20 34 00.0000000  0  7 02 19 16 11 31 18 27
 -13604934.32608 -10601234.16008  21502814.11408  21502819.45008
  -3255733.18809  -2536941.21408  21091175.40309  21091180.61808
    874509.95208    681431.79208  24117224.82608  24117235.05408
  -7603683.69508  -5924928.88908  23006286.08008  23006293.44008
 -10560955.43608  -8229306.64208  22912703.09208  22912709.62608
 -12508411.60408  -9746843.77408  22773586.27208  22773595.04208
 -25864883.92508 -20154448.93508  20515522.46108  20515526.55108
 93 04 09 20 36 00.0000000  0  7 02 19 16 11 31 27 18
 -13739537.85108 -10706119.89608  21477199.77708  21477205.05808
  -3146929.05409  -2452158.93108  21111880.25709  21111885.47308
    998835.64908    778308.31608  24140883.68008  24140894.06208
  -7457167.77008  -5810760.68308  23034167.15208  23034174.58708
 -10252684.54208  -7989095.80708  22971365.20508  22971371.91808
 -25986480.07008 -20249199.11808  20492383.44508  20492387.49708
 -12100045.08808  -9428636.95708  22851296.49608  22851305.47708
 93 04 09 20 38 00.0000000  0  8 02 19 16 11 15 27 31 18
 -13870176.39008 -10807916.03908  21452340.04408  21452345.29908
  -3034051.01409  -2364202.19908  21133360.35809  21133365.66408
   1129518.99608    880138.84408  24165752.35908  24165762.89608
  -7301473.92908  -5689440.85608  23063794.74808  23063802.18008
        -0.41417        -0.82417  25136438.94017  25136454.45417
 -26104025.70708 -20340793.06708  20470015.19608  20470019.25808
  -9938008.73408  -7743894.15308  23031246.27208  23031252.97008
 -11688436.44308  -9107903.83708  22929623.60508  22929632.84408
 93 04 09 20 40 00.0000000  0  8 02 19 16 11 15 27 31 18
 -13997254.88908 -10906938.16108  21428157.71608  21428162.93908
  -2917307.62309  -2273233.52308  21155576.00209  21155581.33008
   1266017.28908    986500.45508  24191727.67208  24191738.37808
  -7136810.48208  -5561131.75208  23095129.20408  23095136.67708
   -252862.27607   -197035.20807  25088320.33307  25088335.60107
 -26217597.58408 -20429290.59508  20448403.12008  20448407.16608
  -9617214.33708  -7493924.79408  23092291.63908  23092298.39608
 -11273968.81308  -8784942.97608  23008494.92908  23008504.28508
 93 04 09 20 42 00.0000000  0  8 02 19 16 11 15 27 31 18
 -14120628.30408 -11003073.18008  21404680.44808  21404685.63908
  -2796454.11609  -2179062.17808  21178573.87709  21178579.25408
   1408089.74608   1097205.53808  24218763.72808  24218774.59508
  -6963248.90908  -5425889.06508  23128156.93608  23128164.40908
   -504212.83707   -392891.97907  25040489.31407  25040504.37007
 -26327465.34908 -20514901.82608  20427496.00708  20427500.04008
  -9290449.11808  -7239302.86408  23154473.24208  23154480.09108
 -10856630.21108  -8459745.03408  23087912.52908  23087922.13608
 93 04 09 20 44 00.0000000  0  8 02 19 16 11 15 27 31 18
 -14240462.23508 -11096450.17808  21381876.72108  21381881.89608
  -2671991.73809  -2082078.71908  21202258.45509  21202263.86808
   1555504.26708   1212073.26908  24246816.32408  24246827.39608
  -6781190.16708  -5284025.20008  23162801.67908  23162809.12808
   -754166.26307   -587660.04807  24992924.08707  24992939.01407
 -26433330.16708 -20597393.89208  20407350.60108  20407354.65708
  -8958183.10708  -6980394.61108  23217701.58408  23217708.55908
 -10436755.01308  -8132570.55408  23167812.85208  23167822.71808
 93 04 09 20 46 00.0000000  0  8 02 19 16 11 15 27 31 18
 -14355846.80508 -11186360.14408  21359919.71908  21359924.87508
  -2543007.17609  -1981571.46108  21226803.51409  21226808.97008
   1708875.17708   1331582.30708  24276002.39608  24276013.62808
  -6589965.81808  -5135019.32408  23199190.49408  23199198.03208
  -1001760.19807   -780589.45307  24945807.80507  24945822.50307
 -26534279.90908 -20676056.04208  20388140.50408  20388144.54008
  -8619812.92508  -6716729.88008  23282091.57008  23282098.60108
 -10013929.35908  -7803097.05408  23248274.69308  23248284.85408
 93 04 09 20 48 00.0000000  0  8 02 19 16 11 15 27 31 18
 -14467375.49608 -11273265.54808  21338696.48108  21338701.63308
  -2409653.81108  -1877659.92608  21252179.94608  21252185.44208
   1867954.32008   1455539.33108  24306274.69508  24306286.13108
  -6389687.15608  -4978958.16908  23237302.39408  23237309.94408
  -1246805.75907   -971533.12707  24899176.54907  24899191.00607
 -26630729.79708 -20751211.80608  20369786.70308  20369790.75408
  -8275511.22008  -6448443.18408  23347610.23808  23347617.37808
  -9588341.13008  -7471470.96008  23329262.26308  23329272.68908
 93 04 09 20 50 00.0000000  0  8 02 19 16 11 15 27 31 18
 -14574745.52808 -11356930.43808  21318264.50808  21318269.66008
  -2271528.04708  -1770029.62808  21278464.53808  21278470.10008
   2032695.67108   1583908.41808  24337624.49708  24337636.12408
  -6180288.84208  -4815790.83008  23277149.68308  23277157.27508
  -1488932.82907  -1160202.68507  24853100.61607  24853114.82107
 -26722268.72608 -20822540.84708  20352367.42608  20352371.46708
  -7925270.71808  -6175528.89608  23414259.09408  23414266.33508
  -9159991.91608  -7137693.48708  23410775.23208  23410785.94308
 93 04 09 20 52 00.0000000  0  8 02 19 16 11 15 27 31 18
 -14678644.94608 -11437890.96508  21298493.12308  21298498.23308
  -2129153.01408  -1659088.25308  21305557.74708  21305563.32708
   2202298.81308   1716065.91008  24369899.57108  24369911.36708
  -5962658.15908  -4646208.67108  23318563.57508  23318571.20008
  -1728718.56107  -1347047.92007  24807470.28807  24807484.32907
 -26809376.67608 -20890417.16708  20335791.34208  20335795.39408
  -7570031.00808  -5898719.13708  23481859.24208  23481866.59108
  -8729819.21808  -6802495.17508  23492635.32908  23492646.25108
 93 04 09 20 54 00.0000000  0  8 02 19 16 11 15 27 31 18
 -14779131.54508 -11516192.14808  21279371.07008  21279376.17508
  -1982984.40008  -1545190.88908  21333372.89208  21333378.53708
   2376673.48308   1851941.45808  24403082.53508  24403094.57008
  -5736956.04108  -4470337.10308  23361513.43308  23361521.13108
  -1966010.22507  -1531949.78207  24762314.58907  24762328.50207
 -26892181.50808 -20954940.40108  20320034.08808  20320038.13608
  -7210001.80508  -5618177.32708  23550370.85708  23550378.27308
  -8297738.18508  -6465809.86108  23574858.56808  23574869.86808
 93 04 09 20 56 00.0000000  0  8 02 19 16 11 15 27 31 18
 -14875267.05509 -11591102.86608  21261077.05109  21261082.16008
  -1831678.25908  -1427290.29608  21362165.69108  21362171.44008
   2556407.15508   1991992.77808  24437285.37308  24437297.61908
  -5502262.60508  -4287459.31708  23406174.24808  23406182.03108
  -2199567.77507  -1713941.96307  24717869.53807  24717883.27507
 -26969378.54808 -21015093.93508  20305343.98308  20305348.01908
  -6844308.33008  -5333221.80208  23619960.30908  23619967.87308
  -7863027.45908  -6127075.51908  23657582.12708  23657593.69408
 93 04 09 20 58 00.0000000  0  8 02 19 16 11 15 27 31 18
 -14967057.79309 -11662628.03708  21243609.82009  21243614.88208
  -1675107.97608  -1305287.76608  21391960.27308  21391966.07408
   2741246.93708   2136022.87008  24472459.91108  24472472.35808
  -5258797.17508  -4097746.24108  23452504.33908  23452512.16008
  -2429285.56807  -1892942.11107  24674155.15607  24674168.71407
 -27040816.19108 -21070759.62908  20291749.82708  20291753.88208
  -6473209.14508  -5044054.04508  23690578.47708  23690586.11108
  -7426287.59308  -5786760.04508  23740692.00908  23740703.91308
 93 04 09 21 00 00.0000000  0  8 02 19 16 11 15 27 31 18
 -15056861.28809 -11732604.68108  21226520.67609  21226525.71808
  -1515481.84508  -1180904.02108  21422336.27708  21422342.16208
   2929111.62408   2282410.06908  24508210.02008  24508222.64908
  -5008617.73308  -3902801.45308  23500112.09408  23500119.95808
  -2656893.72208  -2070298.36908  24630842.15808  24630855.51308
 -27108471.87208 -21123478.35308  20278875.41308  20278879.43908
  -6098798.38708  -4752305.84208  23761826.80608  23761834.52208
  -6989138.24408  -5446125.49308  23823879.83408  23823891.84508
 93 04 09 21 02 00.0000000  0  8 02 19 16 11 15 27 31 18
 -15143959.73209 -11800473.48108  21209946.30409  21209951.30708
  -1352076.05508  -1053575.03908  21453431.54508  21453437.48708
   3120683.51808   2431686.02808  24544665.64808  24544678.46608
  -4751341.19708  -3702326.47008  23549070.39808  23549078.33008
  -2881678.59108  -2245454.67908  24588066.53008  24588079.64308
 -27171697.04908 -21172744.74808  20266844.06208  20266848.10708
  -5720725.12908  -4457703.74608  23833772.08008  23833779.90308
  -6551256.54908  -5104920.33408  23907206.83308  23907219.48108
 93 04 09 21 04 00.0000000  0  8 02 19 16 11 15 27 31 18
 -15226291.93409 -11864628.33508  21194278.92509  21194283.91608
  -1183188.25208   -921974.34708  21485569.95908  21485575.93408
   3317909.42108   2585367.68308  24582197.08608  24582210.21208
  -4485176.38008  -3494925.53508  23599720.00608  23599727.98508
  -3101513.83608  -2416754.16408  24546232.65708  24546245.66008
 -27228704.19808 -21217165.91908  20255995.96008  20256000.01808
  -5337226.62208  -4158874.18808  23906749.75508  23906757.68308
  -6110977.71208  -4761847.35108  23990990.13808  23991003.10308
 93 04 09 21 06 00.0000000  0  8 02 19 16 11 15 27 31 18
 -15305494.09009 -11926344.20008  21179207.16909  21179212.14908
  -1010154.03208   -787142.71208  21518497.46208  21518503.48808
   3518748.27708   2741864.57407  24620416.15608  24620429.25407
  -4211574.09408  -3281729.19708  23651784.97408  23651793.05408
  -3317512.15208  -2585063.85808  24505129.08708  24505141.91908
 -27280739.02808 -21257712.55108  20246094.07308  20246098.14708
  -4949776.10308  -3856965.12608  23980479.50308  23980487.49008
  -5669779.83508  -4418058.25108  24074948.42208  24074961.69708
 93 04 09 21 08 00.0000000  0  8 02 19 16 11 15 27 31 18
 -15381311.10909 -11985422.29808  21164779.58009  21164784.52408
   -832255.57808   -648520.78208  21552350.56208  21552356.66108
   3722628.96008   2900731.73108  24659214.06908  24659227.61208
  -3930747.15408  -3062903.25008  23705224.72708  23705232.85908
  -3529546.57608  -2750284.80108  24464779.80108  24464792.43008
 -27327537.97308 -21294179.27408  20237188.53408  20237192.58908
  -4558606.93708  -3552158.41808  24054916.80708  24054924.96208
  -5228061.22408  -4073863.43708  24159005.78808  24159019.44908
 93 04 09 21 10 00.0000000  0  8 02 19 16 11 15 27 31 18
 -15453356.93509 -12041561.82408  21151069.67409  21151074.59708
   -649369.18408   -506012.15708  21587152.88508  21587159.02908
   3930854.13908   3062984.19108  24698838.66008  24698852.47308
  -3642222.23008  -2838078.88208  23760129.38408  23760137.58508
  -3736802.36008  -2911782.16408  24425339.77708  24425352.27208
 -27368202.14708 -21325865.66708  20229450.40208  20229454.47208
  -4163262.05608  -3244097.89608  24130148.78708  24130156.98908
  -4785014.35408  -3728633.60408  24243315.94408  24243329.91208
 93 04 09 21 12 00.0000000  0  8 02 19 16 11 15 27 31 18
 -15522106.58009 -12095132.93608  21137987.02009  21137991.91108
   -462386.46908   -360311.60408  21622734.70208  21622740.93808
   4142705.49108   3228062.23907  24739153.33008  24739167.10507
  -3346643.74908  -2607758.25308  23816376.28308  23816384.59408
  -3939578.97908  -3069789.27708  24386752.22708  24386764.55208
 -27403499.55108 -21353370.17208  20222733.56608  20222737.64708
  -3764396.66008  -2933294.07508  24206050.59308  24206058.90608
  -4341345.32908  -3382919.00708  24327744.51708  24327758.86408
 93 04 09 21 14 00.0000000  0  8 02 19 16 11 15 27 31 18
 -15587790.13109 -12146314.87408  21125487.84209  21125492.73108
   -270734.05808   -210972.32508  21659205.12908  21659211.44108
   4357272.16208   3395256.14007  24779984.64608  24779998.97807
  -3044262.51508  -2372136.77408  23873917.72608  23873926.05008
  -4137783.57408  -3224233.76108  24349034.61508  24349046.79008
 -27433338.30208 -21376621.17008  20217055.43508  20217059.53408
  -3362271.62908  -2619950.24708  24282572.73408  24282581.15208
  -3897445.60508  -3037024.68808  24412217.06408  24412231.79008
 93 04 09 21 16 00.0000000  0  8 02 19 16 11 15 27 31 18
 -15650703.67909 -12195338.34908  21113515.72009  21113520.58508
    -74662.25408    -58189.37008  21696516.55508  21696522.91508
   4574626.36008   3564622.18608  24821346.46908  24821361.15208
  -2735464.80308  -2131515.44708  23932680.19208  23932688.56008
  -4331454.58408  -3375145.56208  24312179.75508  24312191.72008
 -27457703.49708 -21395607.02208  20212418.93508  20212423.01608
  -2957276.41008  -2304369.89408  24359640.96408  24359649.50508
  -3453564.86308  -2691145.18308  24496685.95908  24496701.05308
 93 04 09 21 18 00.0000000  0  8 02 19 16 11 15 27 31 18
 -15710694.49709 -12242084.38408  21102099.82609  21102104.68708
    125872.24808     98071.01808  21734677.23008  21734683.64708
   4794539.66708   3735982.38307  24863195.20308  24863209.64907
  -2420419.83208  -1886026.14708  23992631.47108  23992639.91408
  -4520414.58808  -3522386.40008  24276221.24608  24276233.13708
 -27476289.51608 -21410089.62808  20208882.09808  20208886.18308
  -2549582.70108  -1986686.83008  24437222.77108  24437231.39408
  -3009793.06108  -2345350.63708  24581134.10808  24581149.66308
 93 04 09 21 20 00.0000000  0  8 02 19 16 11 15 27 31 18
 -15767462.16309 -12286318.84208  21091297.19409  21091302.04208
    331156.65608    258032.63208  21773741.75308  21773748.21608
   5017472.24408   3909695.27507  24905618.46108  24905633.10607
  -2098635.23308  -1635285.21108  24053865.24808  24053873.81208
  -4703823.74608  -3665301.81208  24241319.10408  24241330.69808
 -27488750.65608 -21419799.64208  20206510.82208  20206514.91608
  -2138693.83808  -1666513.99908  24515412.59408  24515421.27708
  -2565755.62008  -1999349.14008  24665633.00508  24665648.95308
 93 04 09 21 22 00.0000000  0  8 02 19 16 11 15 27 31 18
 -15820859.47109 -12327927.01308  21081135.92409  21081140.74708
    541453.68308    421900.18008  21813760.13208  21813766.66408
   5243320.22808   4085679.88307  24948596.61008  24948611.63107
  -1770195.36108  -1379358.31508  24116365.49308  24116374.09108
  -4881419.52808  -3803687.30008  24207523.06208  24207534.53308
 -27494920.63708 -21424607.47108  20205336.77308  20205340.86608
  -1724690.37608  -1343914.20608  24594195.07408  24594203.81408
  -2121441.62708  -1653132.14908  24750184.38308  24750200.77008
 93 04 09 21 24 00.0000000  0  8 02 19 16 11 15 27 31 18
 -15871816.43109 -12367633.62408  21071439.09609  21071443.86208
    755923.25408    589019.03608  21854572.53008  21854579.11708
   5470794.49407   4262931.65507  24991884.06007  24991899.45807
  -1436270.38708  -1119157.36408  24179909.52208  24179918.31608
  -5054026.03208  -3938185.10008  24174676.58708  24174687.82608
 -27495716.07308 -21425227.33808  20205185.44408  20205189.57208
  -1308732.21608  -1019791.26408  24673349.56708  24673358.35108
  -1678068.89808  -1307648.66208  24834556.76408  24834573.59408
 93 04 09 21 26 00.0000000  0  8 02 19 16 11 15 27 31 18
 -15919312.51609 -12404643.47608  21062400.79609  21062405.55208
    975337.79008    759991.08508  21896326.01708  21896332.64708
   5700672.45607   4442056.39007  25035629.18407  25035644.55707
  -1096202.67008   -854169.89108  24244622.53608  24244631.36608
  -5220639.63808  -4068013.14608  24142970.53308  24142981.59208
 -27490015.09808 -21420785.04608  20206270.32608  20206274.45208
   -890149.78608   -693623.36607  24753003.27608  24753012.11007
  -1235119.78508   -962495.29708  24918848.53208  24918865.70208
 93 04 09 21 28 00.0000000  0  8 02 19 16 11 15 27 31 18
 -15964011.99209 -12439474.11908  21053894.72509  21053899.43908
   1199486.59308    934652.20008  21938980.29508  21938987.04508
   5932311.23507   4622553.29207  25079709.17007  25079724.77107
   -750506.81908   -584796.75108  24310406.47008  24310415.36008
  -5381431.14208  -4193304.45808  24112372.35908  24112383.18008
 -27477915.73608 -21411356.93908  20208572.71508  20208576.83008
   -469441.44507   -365798.82207  24833061.51607  24833070.42707
   -792763.24908   -617803.57607  25003027.55608  25003045.16807
 93 04 09 21 30 00.0000000  0  7 02 19 16 11 15 27 31
 -16006498.28909 -12472580.19508  21045809.75109  21045814.44208
   1427619.38108   1112417.74208  21982392.72708  21982399.53708
   6165255.82007   4804067.77007  25124037.66207  25124053.51907
   -399899.03608   -311596.15908  24377125.15808  24377134.02108
  -5536774.14008  -4314350.21108  24082810.98808  24082821.65008
 -27460150.81308 -21397514.13708  20211953.28308  20211957.38908
    -47305.61807    -36861.85407  24913391.32507  24913400.16107
 93 04 09 21 32 00.0000000  0  8 02 19 16 11 15 27 31 26
 -16045274.05909 -12502794.99008  21038430.90509  21038435.57308
   1661087.07508   1294340.36908  22026820.32408  22026827.18808
   6400654.01307   4987494.08607  25168833.11107  25168849.21207
    -43081.93408    -33557.13008  24445025.37108  24445034.32708
  -5685028.09808  -4429872.08508  24054598.60708  24054609.22408
 -27435427.19108 -21378248.99108  20216658.02908  20216662.14708
    377578.45907    294216.72207  24994243.94907  24994252.79907
        -0.44818        -0.52218  23813995.64718  23814003.00318
 93 04 09 21 34 00.0000000  0  8 02 19 16 11 15 27 31 26
 -16080560.42109 -12530290.74508  21031716.00909  21031720.65608
   1900177.50808   1480644.36908  22072317.91708  22072324.81508
   6638174.66407   5172574.33607  25214032.25407  25214048.59707
    319591.08308    249044.97908  24514039.93708  24514049.01008
  -5826208.57308  -4539882.17708  24027732.42208  24027742.78408
 -27403572.79608 -21353427.40208  20222719.73508  20222723.85708
    804880.97607    627179.87007  25075556.80507  25075565.67207
   -295526.94608   -230280.45108  23757758.50908  23757765.81508
 93 04 09 21 36 00.0000000  0  8 02 19 16 11 15 27 31 26
 -16113332.21109 -12555827.06308  21025479.60809  21025484.24408
   2143858.90608   1670525.75608  22118689.12808  22118696.06108
   6876781.15607   5358500.72907  25259438.19907  25259454.67407
    687038.28608    535367.28108  24583962.95608  24583972.05808
  -5961062.57808  -4644962.56008  24002070.06408  24002080.20308
 -27364826.89408 -21323235.79908  20230092.84008  20230096.95608
   1233546.86007    961205.54107  25157129.04207  25157137.72507
   -585090.62808   -455913.99408  23702656.05808  23702663.30108
 93 04 09 21 38 00.0000000  0  8 02 19 16 11 15 27 31 26
 -16143723.24009 -12579508.23908  21019696.31109  21019700.91608
   2391861.58008   1863774.35908  22165882.66008  22165889.64808
   7115733.12507   5544696.28207  25304910.04507  25304926.55707
   1058922.04408    825146.70208  24654730.16508  24654739.28708
  -6089593.65508  -4745116.01608  23977610.93408  23977620.96908
 -27320030.90908 -21288329.84908  20238617.22908  20238621.34708
   1663270.35907   1296055.36707  25238902.36207  25238911.07407
   -868876.77608   -677045.53608  23648652.86908  23648659.92308
 93 04 09 21 40 00.0000000  0  8 02 19 16 11 15 27 31 26
 -16171746.99809 -12601344.76708  21014363.41709  21014367.98108
   2643711.75908   2060020.98608  22213808.34108  22213815.37608
   7355123.32107   5731233.33507  25350464.90007  25350481.70507
   1434869.07308   1118092.35208  24726270.58908  24726279.68008
  -6211844.89108  -4840376.12708  23954346.81508  23954356.73108
 -27269055.77908 -21248608.94608  20248317.48108  20248321.59208
   2093709.20607   1631462.67907  25320811.78707  25320820.33207
  -1147044.27408   -893798.92408  23595719.01408  23595725.91708
 93 04 09 21 42 00.0000000  0  8 02 19 15 16 11 27 31 26
 -16197184.33009 -12621165.88908  21009522.70409  21009527.22008
   2900291.12808   2259952.67908  22262633.97008  22262641.10008
  -6327168.33908  -4930237.94008  23932401.00608  23932410.77708
   7595238.37407   5918335.20206  25396157.79207  25396174.68906
   1815202.18608   1414455.67708  24798645.68408  24798654.81208
 -27211299.56108 -21203604.06308  20259308.08008  20259312.18108
   2525224.56207   1967708.81506  25402926.14107  25402934.67806
  -1419187.22508  -1105857.87308  23543931.52508  23543938.31108
 93 04 09 21 44 00.0000000  0  8 02 19 15 16 11 27 31 26
 -16219944.44309 -12638900.85608  21005191.49509  21005195.96808
   3161641.74608   2463602.16708  22312367.56508  22312374.79208
  -6435291.99508  -5014489.51408  23911825.31108  23911834.94208
   7835881.29307   6105848.40406  25441951.16807  25441968.53506
   2199871.96108   1714198.33908  24871845.93408  24871855.08408
 -27146944.43508 -21153457.17808  20271554.43108  20271558.52708
   2957802.67806   2304782.99806  25485242.68306  25485251.18706
  -1684616.08308  -1312685.01008  23493421.69608  23493428.33108
 93 04 09 21 46 00.0000000  0  6 02 19 11 15 27 26
 -16240104.10109 -12654609.53408  21001355.11809  21001359.53008
   3427512.69308   2670773.94308  22362961.44708  22362968.75708
   2588722.10908   2017198.42008  24945841.57508  24945850.90408
  -6536053.09308  -5093004.02708  23892650.67008  23892660.08908
 -27075894.01408 -21098093.19008  20285074.85008  20285078.94808
  -1943214.90108  -1514190.05408  23444211.66408  23444218.17908
 93 04 09 21 48 00.0000000  0  7 02 19 11 15 13 27 26
 -16257859.71409 -12668444.95308  20997976.23109  20997980.61408
   3698246.45308   2881734.96208  22414480.62908  22414488.03608
   2981488.68308   2323250.34708  25020582.50408  25020591.84008
  -6629402.80108  -5165743.43208  23874886.25608  23874895.61608
        -0.13818         0.12217  23764587.68018  23764601.68117
 -26997591.33508 -21037078.11308  20299975.35208  20299979.45808
  -2195169.63608  -1710517.97908  23396265.87308  23396272.32508
 93 04 09 21 50 00.0000000  0  7 02 19 15 11 13 27 26
 -16272661.33809 -12679978.54708  20995159.48309  20995163.81808
   3973962.73508   3096578.49608  22466947.95508  22466955.42008
  -6715108.68408  -5232526.65308  23858576.56008  23858585.75608
   3378095.45408   2632294.63007  25096054.31408  25096063.50807
   -469197.75608   -365606.86507  23675301.15608  23675314.80107
 -26911810.05508 -20970235.55808  20316299.00308  20316303.06408
  -2440101.75008  -1901373.79208  23349656.58008  23349662.90808
 93 04 09 21 52 00.0000000  0  7 02 19 15 11 13 27 26
 -16284644.62409 -12689316.02608  20992879.00909  20992883.31508
   4254367.71508   3315075.58408  22520307.45508  22520315.01108
  -6792947.33708  -5293179.55908  23843763.92308  23843772.93008
   3778463.76008   2944270.00707  25172241.82108  25172250.99307
   -935905.56208   -729273.75107  23586488.47308  23586501.77107
 -26819161.78208 -20898042.08308  20333929.36508  20333933.43708
  -2677892.83108  -2086665.13008  23304406.08808  23304412.32308
 93 04 09 21 54 00.0000000  0  7 02 15 13 11 26 27 19
 -16293769.00809 -12696425.77408  20991142.61709  20991146.88708
  -6862814.34508  -5347620.80408  23830468.20508  23830477.10408
  -1399934.84308  -1090853.48207  23498185.52508  23498198.40607
   4182399.03007   3259024.75607  25249108.22507  25249117.28607
  -2908265.45408  -2266175.79808  23260567.26608  23260573.38108
 -26719291.09708 -20820220.74308  20352934.10008  20352938.17608
   4539589.95108   3537326.37508  22574583.65408  22574591.32808
 93 04 09 21 56 00.0000000  0  7 02 15 13 11 27 26 19
 -16301759.80109 -12702652.20408  20989621.90709  20989626.13108
  -6926088.97208  -5396925.16508  23818427.06008  23818435.80908
  -1862565.08108  -1451342.99407  23410148.66708  23410161.20607
   4588232.53007   3575258.70507  25326335.78207  25326344.84007
 -26613500.94608 -20737786.82608  20373065.24808  20373069.31708
  -3132634.99208  -2441008.73408  23217870.85408  23217876.79408
   4827769.05608   3761881.21608  22629422.56408  22629430.28808
 93 04 09 21 58 00.0000000  0  7 02 15 13 11 27 26 19
 -16307689.13409 -12707272.28508  20988493.39809  20988497.56108
  -6981737.03108  -5440286.81108  23807837.21508  23807845.84008
  -2322664.71208  -1809860.59307  23322593.44608  23322605.54407
   4996710.74207   3893553.45707  25404066.44607  25404075.63007
 -26500655.52808 -20649855.30508  20394539.01808  20394543.08608
  -3349854.84608  -2610270.55008  23176534.98108  23176540.84308
   5120282.84908   3989813.71108  22685086.34308  22685094.13308
 93 04 09 22 00 00.0000000  0  7 02 15 13 11 27 26 19
 -16310421.86009 -12709401.53908  20987973.33209  20987977.47708
  -7028566.55808  -5476776.89908  23798925.55908  23798934.04108
  -2778936.71808  -2165395.66007  23235766.53908  23235778.32607
   5408745.79407   4214619.79907  25482474.05507  25482483.09507
 -26380012.90808 -20555848.05908  20417496.54608  20417500.60808
  -3558933.08208  -2773188.31908  23136748.46108  23136754.32408
   5418080.69108   4221863.63108  22741755.64208  22741763.50508
 93 04 09 22 02 00.0000000  0  7 02 15 13 11 27 26 19
 -16310644.25109 -12709574.69308  20987930.87809  20987934.99308
  -7067378.47508  -5507019.48108  23791539.51508  23791547.88708
  -3232072.75108  -2518487.17208  23149536.49908  23149547.90008
   5823265.34407   4537622.06107  25561354.36907  25561363.55507
 -26252303.76508 -20456334.43108  20441798.78208  20441802.81508
  -3760685.75408  -2930397.89408  23098356.06008  23098361.76608
   5720443.66608   4457470.76908  22799293.69608  22799301.69608
 93 04 09 22 04 00.0000000  0  7 02 15 11 27 13 26 19
 -16308659.82409 -12708028.27008  20988308.40409  20988312.47708
  -7098189.46908  -5531027.58708  23785676.06808  23785684.35508
   6239986.04507   4862339.42707  25640653.73807  25640662.91307
 -26117646.66408 -20351406.80308  20467423.13508  20467427.16908
  -3681971.93208  -2869056.49208  23063922.44008  23063933.45508
  -3954967.37508  -3081785.84208  23061385.06508  23061390.75408
   6027059.14108   4696391.54108  22857640.95708  22857648.99208
 93 04 09 22 06 00.0000000  0  7 02 15 13 11 27 26 19
 -16304599.65709 -12704864.39408  20989080.93809  20989084.98608
  -7120922.98908  -5548741.55808  23781349.62208  23781357.82308
  -4128440.88708  -3216952.98308  22978961.20408  22978971.85308
   6658726.24807   5188630.42407  25720337.40407  25720346.57107
 -25975851.08208 -20240916.74008  20494405.95308  20494409.98508
  -4141817.81408  -3227383.24208  23025828.37808  23025833.95208
   6337832.53908   4938552.27808  22916779.48108  22916787.59308
 93 04 09 22 08 00.0000000  0  7 02 15 13 26 11 27 19
 -16298402.39909 -12700035.25208  20990260.17409  20990264.19408
  -7135507.65008  -5560105.78108  23778573.96608  23778581.98608
  -4571280.49108  -3562021.47008  22894690.64708  22894700.87508
  -4321410.14008  -3367325.02408  22991652.88108  22991658.35908
   7079307.68507   5516356.01406  25800371.59407  25800380.77706
 -25826967.17108 -20124903.33308  20522737.66808  20522741.69608
   6652535.58308   5183775.09108  22976665.71608  22976673.96208
 93 04 09 22 10 00.0000000  0  6 02 15 13 26 19 27
 -16290158.84009 -12693611.57808  20991828.74909  20991832.75008
  -7141872.48808  -5565065.00008  23777362.44708  23777370.38908
  -5010289.62308  -3904105.20008  22811148.97008  22811158.98008
  -4492733.83308  -3500823.78808  22959050.93508  22959056.35608
   6971134.26308   5432033.38808  23037293.32108  23037301.65608
 -25671146.44708 -20003484.62708  20552389.38508  20552393.43808
 93 04 09 22 12 00.0000000  0  6 02 15 13 26 19 27
 -16279572.48609 -12685362.36908  20993843.21309  20993847.20208
  -7139904.58708  -5563531.23008  23777736.66408  23777744.51508
  -5445221.81608  -4243012.13708  22728383.17808  22728392.85908
  -4656300.22608  -3628277.93908  22927925.10508  22927930.49508
   7293751.98308   5683423.34108  23098685.83108  23098694.29308
 -25508309.96808 -19876599.11708  20583376.17308  20583380.25008
 93 04 09 22 14 00.0000000  0  6 02 15 13 26 19 27
 -16267054.33109 -12675607.87208  20996225.28409  20996229.24308
  -7129590.16208  -5555493.68008  23779699.19308  23779707.02708
  -5875923.20308  -4578622.40008  22646422.56208  22646431.89408
  -4812085.82208  -3749669.11308  22898279.97708  22898285.35508
   7620386.40208   5937943.15308  23160842.68708  23160851.27808
 -25338134.22208 -19743994.70708  20615759.58208  20615763.67508
 93 04 09 22 16 00.0000000  0  6 02 15 13 26 19 27
 -16252352.16309 -12664151.55308  20999022.91909  20999026.86108
  -7110707.66008  -5540779.74408  23783292.20508  23783299.94308
  -6302027.39908  -4910650.50808  22565336.73308  22565345.84808
  -4959840.52908  -3864802.45108  22870163.04408  22870168.37608
   7951218.64208   6195733.99008  23223798.31708  23223806.99708
 -25160910.39008 -19605898.29108  20649484.22508  20649488.33108
 93 04 09 22 18 00.0000000  0  6 02 15 13 26 19 27
 -16235466.16209 -12650993.54108  21002236.15009  21002240.08608
  -7083220.90108  -5519361.21808  23788522.52908  23788530.17708
  -6723349.33708  -5238952.23808  22485161.02608  22485169.88608
  -5099572.74508  -3973684.53608  22843572.77108  22843578.06708
   8286101.06308   6456680.80208  23287524.72208  23287533.57408
 -24976424.68508 -19462143.27108  20684590.72608  20684594.86408
 93 04 09 22 20 00.0000000  0  6 02 15 13 26 19 27
 -16216176.08509 -12635962.22308  21005906.85709  21005910.75208
  -7047229.35008  -5491315.63208  23795371.32108  23795378.93008
  -7139834.64308  -5563485.17608  22405905.70408  22405914.28908
  -5230835.97008  -4075967.44908  22818594.11608  22818599.35608
   8624968.93308   6720733.10308  23352009.62708  23352018.56308
 -24784863.42608 -19312874.82108  20721043.70708  20721047.85908
 93 04 09 22 22 00.0000000  0  6 02 15 13 26 19 27
 -16194623.97609 -12619168.26808  21010007.97909  21010011.82408
  -7002667.45408  -5456591.88508  23803850.99908  23803858.57308
  -7551262.50008  -5884077.28008  22327612.83608  22327621.14908
  -5354015.67308  -4171951.51608  22795153.64508  22795158.84008
   8967487.86708   6987630.38108  23417189.20808  23417198.30608
 -24585955.74208 -19157881.85708  20758894.58008  20758898.74108
 93 04 09 22 24 00.0000000  0  6 02 13 15 26 19 27
 -16171225.09109 -12600935.28008  21014460.59109  21014464.43108
  -7957542.82908  -6200658.36608  22250299.50808  22250307.52708
  -6949608.04308  -5415246.74508  23813947.79308  23813955.33208
  -5469289.18008  -4261774.88508  22773217.79708  22773222.94908
   9313661.69508   7257375.58508  23483064.36508  23483073.64908
 -24380084.57408 -18997462.83008  20798070.60708  20798074.77008
 93 04 09 22 26 00.0000000  0  6 02 13 15 26 19 27
 -16144531.94009 -12580135.32708  21019540.06009  21019543.86708
  -8357424.99908  -6512253.91408  22174203.74508  22174211.58808
  -6886968.41508  -5366436.51508  23825867.63108  23825875.16308
  -5575206.35808  -4344307.59408  22753062.27508  22753067.43508
   9664500.05008   7530755.50108  23549827.19508  23549836.61108
 -24166094.22908 -18830717.18508  20838791.67708  20838795.84608
 93 04 09 22 28 00.0000000  0  6 02 13 26 15 19 27
 -16115357.30509 -12557401.77008  21025091.78209  21025095.56208
  -8751466.48508  -6819298.31208  22099219.43208  22099227.04108
  -5672280.57308  -4419949.66208  22734589.57008  22734594.67808
  -6815473.85708  -5310726.31808  23839472.51108  23839479.89508
  10019211.19008   7807153.14708  23617326.91508  23617336.54608
 -23945164.58508 -18658564.29808  20880833.26608  20880837.45308
 93 04 09 22 30 00.0000000  0  6 02 13 26 15 19 27
 -16084976.77009 -12533728.57808  21030872.95509  21030876.73108
  -9140383.72008  -7122349.82208  22025210.29008  22025217.67908
  -5762078.02608  -4489921.52308  22717501.52708  22717506.60708
  -6736013.56008  -5248809.07608  23854593.18008  23854600.61008
  10376655.12908   8085680.31708  23685346.74308  23685356.44508
 -23718029.50408 -18481575.99908  20924055.67608  20924059.89208
 93 04 09 22 32 00.0000000  0  6 02 27 15 13 26 19
 -16054516.16609 -12509992.98008  21036669.37109  21036673.12008
 -23485307.04008 -18300233.87408  20968341.34808  20968345.57808
  -6649761.13008  -5181599.27608  23871006.38108  23871013.75808
  -9525172.10608  -7422184.09508  21951986.88408  21951994.06308
  -5845174.64608  -4554671.94808  22701688.63108  22701693.67908
  10735731.23608   8365479.26308  23753677.11308  23753686.96808
 93 04 09 22 34 00.0000000  0  6 02 27 15 13 26 19
 -16020542.40709 -12483519.85008  21043134.31709  21043138.02608
 -23244604.16408 -18112673.25608  21014145.63108  21014149.87408
  -6553914.02208  -5106913.13308  23889245.44808  23889252.78908
  -9902850.65708  -7716478.28508  21880116.45608  21880123.43808
  -5918850.05108  -4612081.23808  22687668.58708  22687673.63408
  11099209.19808   8648708.22808  23822845.07008  23822855.14208
 93 04 09 22 36 00.0000000  0  6 02 27 15 13 26 19
 -15983398.61809 -12454576.55408  21050202.48809  21050206.19308
 -22995997.74008 -17918954.05108  21061453.93508  21061458.18208
  -6448469.95008  -5024748.87008  23909310.69208  23909318.06708
 -10273233.55408  -8005087.59708  21809634.39208  21809641.15408
  -5983079.59108  -4662130.17108  22675446.05708  22675451.00408
  11467089.11608   8935367.16808  23892850.83408  23892861.11308
 93 04 09 22 38 00.0000000  0  6 02 27 15 13 26 19
 -15945161.23609 -12424781.13808  21057478.74009  21057482.44908
 -22741759.94208 -17720846.77208  21109833.83908  21109838.14608
  -6335336.09908  -4936592.58808  23930839.37108  23930846.70308
 -10638041.14908  -8289352.56008  21740213.25008  21740219.90508
  -6039606.26108  -4706176.84608  22664689.26908  22664694.21608
  11837614.41208   9224087.41408  23963360.06308  23963370.44608
 93 04 09 22 40 00.0000000  0  6 02 27 15 13 26 19
 -15904229.20209 -12392886.00708  21065267.79209  21065271.49108
 -22480387.74408 -17517180.25108  21159571.40908  21159575.74808
  -6213245.08008  -4841456.71608  23954072.51908  23954079.86308
 -10995816.43708  -8568137.86408  21672130.40508  21672136.87508
  -6087508.91708  -4743503.52508  22655573.72208  22655578.66108
  12211519.46808   9515441.14808  24034512.41008  24034523.10008
 93 04 09 22 42 00.0000000  0  6 02 27 15 13 26 19
 -15861791.96809 -12359818.01208  21073343.34309  21073347.01908
 -22212718.24808 -17308606.74608  21210507.34108  21210511.71508
  -6083244.42708  -4740157.53108  23978810.82108  23978818.14408
 -11347416.52908  -8842111.36108  21605222.68008  21605229.01608
  -6127793.98208  -4774894.47508  22647907.72208  22647912.68508
  12587626.03908   9808510.32008  24106083.85908  24106094.65408
 93 04 09 22 44 00.0000000  0  6 02 27 15 13 26 19
 -15816989.88409 -12324907.29408  21081868.92809  21081872.61308
 -21938223.73708 -17094715.05208  21262741.99008  21262746.37508
  -5944771.01608  -4632256.23708  24005161.45808  24005168.89008
 -11692086.44808  -9110684.76308  21539633.76108  21539639.94408
  -6159413.70408  -4799533.21608  22641890.68308  22641895.60908
  12966720.95108  10103908.03208  24178223.94408  24178234.96408
 93 04 09 22 46 00.0000000  0  6 02 27 13 15 26 19
 -15769176.46509 -12287650.09908  21090967.50509  21090971.19408
 -21656209.84408 -16874964.13608  21316407.58308  21316412.02608
 -12028854.86608  -9373101.17608  21475548.46808  21475554.51108
  -5797050.11708  -4517149.13808  24033271.97708  24033279.28408
  -6181981.07908  -4817118.17408  22637596.23608  22637601.15308
  13349607.38208  10402260.11908  24251085.60508  24251096.82708
 93 04 09 22 48 00.0000000  0  6 02 27 15 13 26 19
 -15718910.89408 -12248482.14208  21100532.74908  21100536.44908
 -21367265.68008 -16649813.04208  21371391.99608  21371396.46408
  -5640557.52808  -4395207.01108  24063051.59208  24063059.00208
 -12358001.71708  -9629578.72208  21412913.50508  21412919.40808
  -6195727.52808  -4827829.72808  22634980.32208  22634985.26608
  13735767.62908  10703163.25108  24324570.16308  24324581.71208
 93 04 09 22 50 00.0000000  0  6 02 27 15 13 26 19
 -15666933.42508 -12207980.22108  21110423.75408  21110427.45308
 -21072264.89608 -16419942.46908  21427528.91008  21427533.42608
  -5476015.24708  -4266992.37408  24094363.05708  24094370.51408
 -12680047.57108  -9880523.03108  21351629.83408  21351635.61408
  -6201306.83908  -4832177.27508  22633918.74508  22633923.66508
  14124482.55408  11006056.99208  24398540.76908  24398552.64108
 93 04 09 22 52 00.0000000  0  6 02 27 15 13 26 19
 -15612766.11008 -12165771.93808  21120731.46308  21120735.16708
 -20771051.89308 -16185231.22708  21484847.98008  21484852.55108
  -5303424.11608  -4132505.90208  24127206.18708  24127213.64208
 -12994796.91608 -10125781.75708  21291734.64408  21291740.31008
  -6198717.86508  -4830159.88708  22634411.34608  22634416.26008
  14515592.62308  11310817.06308  24472967.39308  24472979.44408
 93 04 09 22 54 00.0000000  0  6 02 27 15 13 26 19
 -15556270.22808 -12121749.17008  21131482.27708  21131485.98108
 -20463565.55308 -15945631.68408  21543360.83908  21543365.46108
  -5122872.78308  -3991816.60608  24161563.94408  24161571.45508
 -13302135.07608 -10365265.54408  21233249.76808  21233255.30808
  -6188213.07808  -4821974.35908  22636410.37808  22636415.34608
  14908819.16608  11617226.35908  24547796.69208  24547808.96008
 93 04 09 22 56 00.0000000  0  6 02 27 15 13 26 19
 -15497981.20208 -12076329.13708  21142574.31408  21142578.00308
 -20150626.57508 -15701783.34608  21602911.28908  21602915.97808
  -4934632.29208  -3845135.87308  24197385.09008  24197392.62808
 -13602132.93308 -10599029.62208  21176161.70308  21176167.11308
  -6169965.23008  -4807755.25608  22639882.75408  22639887.71608
  15304095.88908  11925233.22108  24623016.06108  24623028.51208
 93 04 09 22 58 00.0000000  0  6 02 27 15 13 26 19
 -15438224.67308 -12029765.57108  21153945.57808  21153949.26208
 -19831685.18008 -15453257.82208  21663604.00908  21663608.74408
  -4738802.12508  -3692541.24208  24234650.56708  24234658.10408
 -13894690.67708 -10826996.21608  21120489.45008  21120494.75708
  -6143874.24108  -4787424.55708  22644847.70308  22644852.62308
  15701566.86208  12234949.91108  24698653.00208  24698665.74508
 93 04 09 23 00 00.0000000  0  6 02 27 13 15 26 19
 -15374312.32608 -11979963.69708  21166107.62208  21166111.28908
 -19505127.18408 -15198797.27708  21725746.11808  21725750.90108
 -14177824.55608 -11047619.54008  21066610.49608  21066615.70608
  -4533602.39708  -3532645.54308  24273698.89708  24273706.56108
  -6108210.68508  -4759634.71508  22651634.24308  22651639.16708
  16102701.73608  12547521.59807  24774987.15908  24775000.09707
 93 04 09 23 02 00.0000000  0  6 02 27 13 15 26 19
 -15307910.00608 -11928221.58808  21178743.55708  21178747.21008
 -19172629.94208 -14939708.72908  21789018.38908  21789023.25408
 -14452788.35108 -11261876.58208  21014286.27408  21014291.37408
  -4320487.94008  -3366582.62008  24314253.46808  24314261.14608
  -6064427.58108  -4725518.00208  22659965.90908  22659970.79908
  16505978.11307  12861762.07907  24851728.67607  24851741.91407
 93 04 09 23 04 00.0000000  0  6 02 27 26 15 19 13
 -15239930.79708 -11875250.76008  21191679.51108  21191683.19008
 -18835158.14708 -14676743.89608  21853237.27208  21853242.16508
  -6013362.22808  -4685726.82508  22669683.30808  22669688.23508
  -4100363.30608  -3195057.01008  24356141.82508  24356149.58808
  16910274.14507  13176797.15407  24928664.37307  24928677.56707
 -14720286.58008 -11470316.33008  20963382.74108  20963387.70408
